Time,TemperatureF,DewpointF,PressureIn,WindDirection,WindDirectionDegrees,WindSpeedMPH,WindSpeedGustMPH,Humidity,HourlyPrecipIn,Conditions,Clouds,dailyrainin,SolarRadiationWatts/m^2,SoftwareType,DateUTC
2013-01-24 00:00:00,16.6,6.9,29.42,NW,309,3.0,7.0,65,0.00,,SCT028,0.00,0.00,VWS V14.01,2013-01-24 06:00:00,
2013-01-24 00:01:00,16.6,6.9,29.42,WSW,252,2.0,10.0,65,0.00,,CLR,0.00,0.00,VWS V14.01,2013-01-24 06:01:00,
2013-01-24 00:06:00,16.7,7.0,29.42,ESE,105,0.0,1.0,65,0.00,,CLR,0.00,0.00,VWS V14.01,2013-01-24 06:06:00,
2013-01-24 00:11:00,16.7,7.7,29.43,WNW,295,1.0,6.0,67,0.00,,CLR,0.00,0.00,VWS V14.01,2013-01-24 06:11:00,
2013-01-24 00:12:00,16.7,7.7,29.43,WNW,301,1.0,4.0,67,0.00,,CLR,0.00,0.00,VWS V14.01,2013-01-24 06:12:00,
2013-01-24 00:13:00,16.7,7.7,29.43,WNW,301,8.0,9.0,67,0.00,,CLR,0.00,0.00,VWS V14.01,2013-01-24 06:13:00,
2013-01-24 00:18:00,16.1,7.1,29.43,NNW,348,3.0,10.0,67,0.00,,CLR,0.00,0.00,VWS V14.01,2013-01-24 06:18:00,
2013-01-24 00:19:00,15.9,6.9,29.44,ENE,66,1.0,6.0,67,0.00,,CLR,0.00,0.00,VWS V14.01,2013-01-24 06:19:00,
2013-01-24 00:20:00,15.7,6.7,29.44,SE,134,0.0,4.0,67,0.00,,CLR,0.00,0.00,VWS V14.01,2013-01-24 06:20:00,
2013-01-24 00:23:00,15.5,6.5,29.44,East,87,3.0,4.0,67,0.00,,CLR,0.00,0.00,VWS V14.01,2013-01-24 06:23:00,
2013-01-24 00:25:00,15.3,6.0,29.44,West,269,1.0,7.0,66,0.00,,CLR,0.00,0.00,VWS V14.01,2013-01-24 06:25:00,
2013-01-24 00:27:00,15.2,5.6,29.45,West,270,0.0,4.0,65,0.00,,CLR,0.00,0.00,VWS V14.01,2013-01-24 06:27:00,
2013-01-24 00:30:00,15.2,5.2,29.46,WNW,288,6.0,7.0,64,0.00,,CLR,0.00,0.00,VWS V14.01,2013-01-24 06:30:00,
2013-01-24 00:33:00,15.1,4.8,29.45,NW,304,2.0,8.0,63,0.00,,CLR,0.00,0.00,VWS V14.01,2013-01-24 06:33:00,
2013-01-24 00:36:00,15.0,4.3,29.46,NW,322,4.0,6.0,62,0.00,,CLR,0.00,0.00,VWS V14.01,2013-01-24 06:36:00,
2013-01-24 00:38:00,14.9,3.9,29.46,NW,323,3.0,10.0,61,0.00,,CLR,0.00,0.00,VWS V14.01,2013-01-24 06:38:00,
2013-01-24 00:39:00,14.9,3.9,29.46,WNW,282,2.0,4.0,61,0.00,,CLR,0.00,0.00,VWS V14.01,2013-01-24 06:39:00,
2013-01-24 00:43:00,14.8,4.2,29.47,NNE,28,0.0,4.0,62,0.00,,CLR,0.00,0.00,VWS V14.01,2013-01-24 06:43:00,
2013-01-24 00:44:00,14.8,4.2,29.47,NE,55,0.0,1.0,62,0.00,,CLR,0.00,0.00,VWS V14.01,2013-01-24 06:44:00,
2013-01-24 00:48:00,14.8,4.2,29.47,West,260,1.0,2.0,62,0.00,,CLR,0.00,0.00,VWS V14.01,2013-01-24 06:48:00,
2013-01-24 00:49:00,14.7,4.1,29.47,NW,319,1.0,8.0,62,0.00,,CLR,0.00,0.00,VWS V14.01,2013-01-24 06:49:00,
2013-01-24 00:52:00,14.6,3.6,29.48,ESE,107,2.0,4.0,61,0.00,,CLR,0.00,0.00,VWS V14.01,2013-01-24 06:52:00,
2013-01-24 00:54:00,14.5,3.9,29.48,SW,223,0.0,3.0,62,0.00,,CLR,0.00,0.00,VWS V14.01,2013-01-24 06:54:00,
2013-01-24 00:57:00,14.4,3.8,29.48,NW,309,0.0,3.0,62,0.00,,CLR,0.00,0.00,VWS V14.01,2013-01-24 06:57:00,
2013-01-24 00:58:00,14.4,3.8,29.48,SE,143,0.0,2.0,62,0.00,,CLR,0.00,0.00,VWS V14.01,2013-01-24 06:58:00,
2013-01-24 01:00:00,14.4,3.4,29.48,North,350,0.0,4.0,61,0.00,,,0.00,0.00,VWS V14.01,2013-01-24 07:00:00,
2013-01-24 01:03:00,14.3,3.3,29.48,NE,40,0.0,2.0,61,0.00,,,0.00,0.00,VWS V14.01,2013-01-24 07:03:00,
2013-01-24 01:08:00,14.1,2.4,29.49,West,259,1.0,2.0,59,0.00,,,0.00,0.00,VWS V14.01,2013-01-24 07:08:00,
2013-01-24 01:09:00,14.0,2.3,29.49,NW,311,0.0,4.0,59,0.00,,,0.00,0.00,VWS V14.01,2013-01-24 07:09:00,
2013-01-24 01:14:00,13.7,2.0,29.49,WNW,302,0.0,1.0,59,0.00,,,0.00,0.00,VWS V14.01,2013-01-24 07:14:00,
2013-01-24 01:18:00,13.3,1.7,29.49,SE,127,0.0,2.0,59,0.00,,,0.00,0.00,VWS V14.01,2013-01-24 07:18:00,
2013-01-24 01:19:00,13.2,1.6,29.49,SSW,210,3.0,5.0,59,0.00,,,0.00,0.00,VWS V14.01,2013-01-24 07:19:00,
2013-01-24 01:24:00,12.9,1.3,29.50,WNW,286,0.0,2.0,59,0.00,,,0.00,0.00,VWS V14.01,2013-01-24 07:24:00,
2013-01-24 01:25:00,12.8,1.2,29.50,SE,127,0.0,2.0,59,0.00,,,0.00,0.00,VWS V14.01,2013-01-24 07:25:00,
2013-01-24 01:29:00,12.6,1.4,29.50,WNW,300,1.0,3.0,60,0.00,,,0.00,0.00,VWS V14.01,2013-01-24 07:29:00,
2013-01-24 01:34:00,12.4,1.5,29.50,NNW,329,0.0,1.0,61,0.00,,,0.00,0.00,VWS V14.01,2013-01-24 07:34:00,
2013-01-24 01:35:00,12.4,1.5,29.50,ESE,122,5.0,6.0,61,0.00,,,0.00,0.00,VWS V14.01,2013-01-24 07:35:00,
2013-01-24 01:37:00,12.3,1.4,29.50,WNW,303,0.0,3.0,61,0.00,,,0.00,0.00,VWS V14.01,2013-01-24 07:37:00,
2013-01-24 01:39:00,12.2,1.3,29.50,NNW,348,0.0,3.0,61,0.00,,,0.00,0.00,VWS V14.01,2013-01-24 07:39:00,
2013-01-24 01:41:00,12.1,3.6,29.50,NE,47,0.0,3.0,68,0.00,,,0.00,0.00,VWS V14.01,2013-01-24 07:41:00,
2013-01-24 01:44:00,12.1,1.6,29.50,NNW,338,4.0,4.0,62,0.00,,,0.00,0.00,VWS V14.01,2013-01-24 07:44:00,
2013-01-24 01:48:00,11.9,1.4,29.50,NW,305,0.0,4.0,62,0.00,,,0.00,0.00,VWS V14.01,2013-01-24 07:48:00,
2013-01-24 01:49:00,11.8,1.6,29.51,NW,310,0.0,1.0,63,0.00,,,0.00,0.00,VWS V14.01,2013-01-24 07:49:00,
2013-01-24 01:50:00,11.8,1.6,29.51,NW,310,0.0,0.0,63,0.00,,,0.00,0.00,VWS V14.01,2013-01-24 07:50:00,
2013-01-24 01:53:00,11.8,1.6,29.51,WNW,291,0.0,2.0,63,0.00,,,0.00,0.00,VWS V14.01,2013-01-24 07:53:00,
2013-01-24 01:54:00,11.7,1.5,29.51,North,360,0.0,4.0,63,0.00,,,0.00,0.00,VWS V14.01,2013-01-24 07:54:00,
2013-01-24 01:55:00,11.7,1.5,29.51,NNW,329,2.0,5.0,63,0.00,,,0.00,0.00,VWS V14.01,2013-01-24 07:55:00,
2013-01-24 02:00:00,11.5,1.7,29.52,West,275,1.0,2.0,64,0.00,,OVC036,0.00,0.00,VWS V14.01,2013-01-24 08:00:00,
2013-01-24 02:02:00,11.5,1.7,29.52,WNW,302,1.0,1.0,64,0.00,,OVC036,0.00,0.00,VWS V14.01,2013-01-24 08:02:00,
2013-01-24 02:05:00,11.4,1.6,29.52,ESE,119,2.0,2.0,64,0.00,,OVC036,0.00,0.00,VWS V14.01,2013-01-24 08:05:00,
2013-01-24 02:06:00,11.4,1.6,29.52,West,275,0.0,2.0,64,0.00,,OVC036,0.00,0.00,VWS V14.01,2013-01-24 08:06:00,
2013-01-24 02:11:00,11.3,1.5,29.52,West,280,0.0,3.0,64,0.00,,OVC036,0.00,0.00,VWS V14.01,2013-01-24 08:11:00,
2013-01-24 02:13:00,11.2,1.4,29.52,WNW,292,1.0,1.0,64,0.00,,OVC036,0.00,0.00,VWS V14.01,2013-01-24 08:13:00,
2013-01-24 02:15:00,11.2,1.4,29.52,West,277,3.0,3.0,64,0.00,,OVC036,0.00,0.00,VWS V14.01,2013-01-24 08:15:00,
2013-01-24 02:17:00,11.1,1.3,29.53,WNW,291,0.0,4.0,64,0.00,,OVC036,0.00,0.00,VWS V14.01,2013-01-24 08:17:00,
2013-01-24 02:18:00,11.2,1.1,29.52,SW,225,1.0,3.0,63,0.00,,OVC036,0.00,0.00,VWS V14.01,2013-01-24 08:18:00,
2013-01-24 02:23:00,11.0,0.9,29.53,SE,126,1.0,5.0,63,0.00,,OVC036,0.00,0.00,VWS V14.01,2013-01-24 08:23:00,
2013-01-24 02:25:00,10.9,0.8,29.53,WNW,284,1.0,2.0,63,0.00,,OVC036,0.00,0.00,VWS V14.01,2013-01-24 08:25:00,
2013-01-24 02:30:00,10.8,0.7,29.53,West,279,1.0,1.0,63,0.00,,OVC036,0.00,0.00,VWS V14.01,2013-01-24 08:30:00,
2013-01-24 02:31:00,10.8,0.7,29.53,NW,318,0.0,2.0,63,0.00,,OVC036,0.00,0.00,VWS V14.01,2013-01-24 08:31:00,
2013-01-24 02:35:00,10.7,0.6,29.53,WNW,293,0.0,5.0,63,0.00,,OVC036,0.00,0.00,VWS V14.01,2013-01-24 08:35:00,
2013-01-24 02:37:00,10.6,0.5,29.54,WNW,283,2.0,2.0,63,0.00,,OVC036,0.00,0.00,VWS V14.01,2013-01-24 08:37:00,
2013-01-24 02:38:00,10.6,0.5,29.54,WNW,290,0.0,2.0,63,0.00,,OVC036,0.00,0.00,VWS V14.01,2013-01-24 08:38:00,
2013-01-24 02:40:00,10.5,0.4,29.54,WNW,294,1.0,2.0,63,0.00,,OVC036,0.00,0.00,VWS V14.01,2013-01-24 08:40:00,
2013-01-24 02:45:00,10.4,0.6,29.53,NNW,334,0.0,6.0,64,0.00,,OVC036,0.00,0.00,VWS V14.01,2013-01-24 08:45:00,
2013-01-24 02:46:00,10.4,0.6,29.53,North,350,0.0,1.0,64,0.00,,OVC036,0.00,0.00,VWS V14.01,2013-01-24 08:46:00,
2013-01-24 02:51:00,10.3,0.6,29.53,West,279,0.0,3.0,64,0.00,,OVC036,0.00,0.00,VWS V14.01,2013-01-24 08:51:00,
2013-01-24 02:56:00,10.1,0.4,29.54,West,263,0.0,5.0,64,0.00,,OVC036,0.00,0.00,VWS V14.01,2013-01-24 08:56:00,
2013-01-24 02:57:00,10.1,0.4,29.54,WNW,288,3.0,3.0,64,0.00,,OVC036,0.00,0.00,VWS V14.01,2013-01-24 08:57:00,
2013-01-24 03:01:00,10.0,0.3,29.54,NW,305,4.0,4.0,64,0.00,,CLR,0.00,0.00,VWS V14.01,2013-01-24 09:01:00,
2013-01-24 03:02:00,9.9,0.2,29.54,WNW,294,1.0,5.0,64,0.00,,CLR,0.00,0.00,VWS V14.01,2013-01-24 09:02:00,
2013-01-24 03:04:00,9.9,-0.2,29.54,NW,306,1.0,2.0,63,0.00,,CLR,0.00,0.00,VWS V14.01,2013-01-24 09:04:00,
2013-01-24 03:06:00,9.9,-0.2,29.54,West,271,0.0,2.0,63,0.00,,CLR,0.00,0.00,VWS V14.01,2013-01-24 09:06:00,
2013-01-24 03:07:00,9.9,-0.2,29.54,West,271,1.0,1.0,63,0.00,,CLR,0.00,0.00,VWS V14.01,2013-01-24 09:07:00,
2013-01-24 03:09:00,9.9,-0.2,29.54,WNW,293,1.0,1.0,63,0.00,,CLR,0.00,0.00,VWS V14.01,2013-01-24 09:09:00,
2013-01-24 03:12:00,9.9,0.2,29.54,SSE,150,1.0,2.0,64,0.00,,CLR,0.00,0.00,VWS V14.01,2013-01-24 09:12:00,
2013-01-24 03:13:00,9.9,0.2,29.54,SE,128,0.0,5.0,64,0.00,,CLR,0.00,0.00,VWS V14.01,2013-01-24 09:13:00,
2013-01-24 03:17:00,9.7,0.0,29.54,North,5,2.0,2.0,64,0.00,,CLR,0.00,0.00,VWS V14.01,2013-01-24 09:17:00,
2013-01-24 03:18:00,9.7,0.0,29.54,WNW,299,0.0,3.0,64,0.00,,CLR,0.00,0.00,VWS V14.01,2013-01-24 09:18:00,
2013-01-24 03:20:00,9.7,0.0,29.54,WSW,242,0.0,2.0,64,0.00,,CLR,0.00,0.00,VWS V14.01,2013-01-24 09:20:00,
2013-01-24 03:22:00,9.6,-0.1,29.53,NW,304,0.0,5.0,64,0.00,,CLR,0.00,0.00,VWS V14.01,2013-01-24 09:22:00,
2013-01-24 03:24:00,9.5,-0.2,29.54,WNW,303,0.0,0.0,64,0.00,,CLR,0.00,0.00,VWS V14.01,2013-01-24 09:24:00,
2013-01-24 03:25:00,9.5,-0.2,29.54,East,90,0.0,2.0,64,0.00,,CLR,0.00,0.00,VWS V14.01,2013-01-24 09:25:00,
2013-01-24 03:31:00,9.4,-0.3,29.54,West,270,0.0,8.0,64,0.00,,CLR,0.00,0.00,VWS V14.01,2013-01-24 09:31:00,
2013-01-24 03:36:00,9.3,-0.4,29.55,NW,304,2.0,4.0,64,0.00,,CLR,0.00,0.00,VWS V14.01,2013-01-24 09:36:00,
2013-01-24 03:39:00,9.2,-0.5,29.55,East,86,0.0,2.0,64,0.00,,CLR,0.00,0.00,VWS V14.01,2013-01-24 09:39:00,
2013-01-24 03:40:00,9.2,-0.5,29.55,WNW,295,0.0,4.0,64,0.00,,CLR,0.00,0.00,VWS V14.01,2013-01-24 09:40:00,
2013-01-24 03:42:00,9.1,-0.6,29.55,NNW,336,0.0,1.0,64,0.00,,CLR,0.00,0.00,VWS V14.01,2013-01-24 09:42:00,
2013-01-24 03:47:00,9.0,-0.7,29.55,NW,317,2.0,5.0,64,0.00,,CLR,0.00,0.00,VWS V14.01,2013-01-24 09:47:00,
2013-01-24 03:50:00,9.0,-0.7,29.55,NW,315,2.0,2.0,64,0.00,,CLR,0.00,0.00,VWS V14.01,2013-01-24 09:50:00,
2013-01-24 03:53:00,8.9,-1.1,29.55,WNW,298,3.0,5.0,63,0.00,,CLR,0.00,0.00,VWS V14.01,2013-01-24 09:53:00,
2013-01-24 03:54:00,8.9,-1.1,29.56,WNW,303,3.0,4.0,63,0.00,,CLR,0.00,0.00,VWS V14.01,2013-01-24 09:54:00,
2013-01-24 03:59:00,8.7,-1.6,29.56,West,264,0.0,2.0,62,0.00,,CLR,0.00,0.00,VWS V14.01,2013-01-24 09:59:00,
2013-01-24 04:03:00,8.7,-1.6,29.56,NW,311,0.0,3.0,62,0.00,,CLR,0.00,0.00,VWS V14.01,2013-01-24 10:03:00,
2013-01-24 04:04:00,8.6,-1.7,29.56,NW,321,0.0,6.0,62,0.00,,CLR,0.00,0.00,VWS V14.01,2013-01-24 10:04:00,
2013-01-24 04:05:00,8.6,-1.7,29.56,WNW,299,0.0,3.0,62,0.00,,CLR,0.00,0.00,VWS V14.01,2013-01-24 10:05:00,
2013-01-24 04:09:00,8.6,-2.1,29.57,WSW,248,0.0,2.0,61,0.00,,CLR,0.00,0.00,VWS V14.01,2013-01-24 10:09:00,
2013-01-24 04:10:00,8.6,-2.1,29.57,WNW,302,0.0,1.0,61,0.00,,CLR,0.00,0.00,VWS V14.01,2013-01-24 10:10:00,
2013-01-24 04:11:00,8.5,-2.2,29.57,WNW,302,1.0,1.0,61,0.00,,CLR,0.00,0.00,VWS V14.01,2013-01-24 10:11:00,
2013-01-24 04:14:00,8.5,-2.2,29.57,South,176,1.0,4.0,61,0.00,,CLR,0.00,0.00,VWS V14.01,2013-01-24 10:14:00,
2013-01-24 04:18:00,8.4,-1.9,29.57,SE,124,0.0,1.0,62,0.00,,CLR,0.00,0.00,VWS V14.01,2013-01-24 10:18:00,
2013-01-24 04:19:00,8.4,-1.9,29.57,ESE,109,0.0,2.0,62,0.00,,CLR,0.00,0.00,VWS V14.01,2013-01-24 10:19:00,
2013-01-24 04:20:00,8.4,-1.9,29.57,West,259,0.0,2.0,62,0.00,,CLR,0.00,0.00,VWS V14.01,2013-01-24 10:20:00,
2013-01-24 04:24:00,8.3,-2.0,29.57,NW,323,0.0,3.0,62,0.00,,CLR,0.00,0.00,VWS V14.01,2013-01-24 10:24:00,
2013-01-24 04:25:00,8.3,-2.0,29.57,WNW,298,5.0,6.0,62,0.00,,CLR,0.00,0.00,VWS V14.01,2013-01-24 10:25:00,
2013-01-24 04:29:00,8.2,-2.1,29.57,SSE,167,0.0,1.0,62,0.00,,CLR,0.00,0.00,VWS V14.01,2013-01-24 10:29:00,
2013-01-24 04:30:00,8.2,-2.1,29.57,NW,315,1.0,3.0,62,0.00,,CLR,0.00,0.00,VWS V14.01,2013-01-24 10:30:00,
2013-01-24 04:32:00,8.2,-2.1,29.58,NW,306,0.0,3.0,62,0.00,,CLR,0.00,0.00,VWS V14.01,2013-01-24 10:32:00,
2013-01-24 04:35:00,8.1,-2.2,29.58,SE,124,0.0,1.0,62,0.00,,CLR,0.00,0.00,VWS V14.01,2013-01-24 10:35:00,
2013-01-24 04:36:00,8.1,-1.9,29.58,NNW,332,3.0,5.0,63,0.00,,CLR,0.00,0.00,VWS V14.01,2013-01-24 10:36:00,
2013-01-24 04:40:00,8.1,-2.2,29.58,South,185,0.0,2.0,62,0.00,,CLR,0.00,0.00,VWS V14.01,2013-01-24 10:40:00,
2013-01-24 04:45:00,8.0,-2.3,29.58,NNE,33,1.0,5.0,62,0.00,,CLR,0.00,0.00,VWS V14.01,2013-01-24 10:45:00,
2013-01-24 04:50:00,7.9,-2.4,29.59,NW,308,0.0,3.0,62,0.00,,CLR,0.00,0.00,VWS V14.01,2013-01-24 10:50:00,
2013-01-24 04:55:00,7.8,-2.5,29.59,WSW,252,1.0,2.0,62,0.00,,CLR,0.00,0.00,VWS V14.01,2013-01-24 10:55:00,
2013-01-24 04:57:00,7.8,-2.5,29.59,NW,309,1.0,5.0,62,0.00,,CLR,0.00,0.00,VWS V14.01,2013-01-24 10:57:00,
2013-01-24 05:02:00,7.7,-2.6,29.60,WNW,285,1.0,5.0,62,0.00,,CLR,0.00,0.00,VWS V14.01,2013-01-24 11:02:00,
2013-01-24 05:03:00,7.7,-2.6,29.60,NNE,25,1.0,6.0,62,0.00,,CLR,0.00,0.00,VWS V14.01,2013-01-24 11:03:00,
2013-01-24 05:06:00,7.7,-2.6,29.60,West,275,0.0,2.0,62,0.00,,CLR,0.00,0.00,VWS V14.01,2013-01-24 11:06:00,
2013-01-24 05:07:00,7.7,-2.6,29.60,West,275,0.0,0.0,62,0.00,,CLR,0.00,0.00,VWS V14.01,2013-01-24 11:07:00,
2013-01-24 05:08:00,7.7,-2.6,29.60,West,275,0.0,0.0,62,0.00,,CLR,0.00,0.00,VWS V14.01,2013-01-24 11:08:00,
2013-01-24 05:12:00,7.7,-2.6,29.60,NW,323,1.0,2.0,62,0.00,,CLR,0.00,0.00,VWS V14.01,2013-01-24 11:12:00,
2013-01-24 05:13:00,7.7,-2.3,29.60,ESE,112,1.0,1.0,63,0.00,,CLR,0.00,0.00,VWS V14.01,2013-01-24 11:13:00,
2013-01-24 05:15:00,7.6,-2.3,29.60,West,279,0.0,1.0,63,0.00,,CLR,0.00,0.00,VWS V14.01,2013-01-24 11:15:00,
2013-01-24 05:18:00,7.6,-2.3,29.61,NNE,18,0.0,2.0,63,0.00,,CLR,0.00,0.00,VWS V14.01,2013-01-24 11:18:00,
2013-01-24 05:20:00,7.6,-2.3,29.60,NNW,336,0.0,2.0,63,0.00,,CLR,0.00,0.00,VWS V14.01,2013-01-24 11:20:00,
2013-01-24 05:21:00,7.6,-2.3,29.61,NNW,336,1.0,1.0,63,0.00,,CLR,0.00,0.00,VWS V14.01,2013-01-24 11:21:00,
2013-01-24 05:25:00,7.6,-2.0,29.60,WNW,293,1.0,2.0,64,0.00,,CLR,0.00,0.00,VWS V14.01,2013-01-24 11:25:00,
2013-01-24 05:26:00,7.5,-2.1,29.61,WNW,293,0.0,1.0,64,0.00,,CLR,0.00,0.00,VWS V14.01,2013-01-24 11:26:00,
2013-01-24 05:28:00,7.5,-2.1,29.61,WNW,292,0.0,1.0,64,0.00,,CLR,0.00,0.00,VWS V14.01,2013-01-24 11:28:00,
2013-01-24 05:32:00,7.5,-2.1,29.61,NW,321,3.0,4.0,64,0.00,,CLR,0.00,0.00,VWS V14.01,2013-01-24 11:32:00,
2013-01-24 05:36:00,7.4,-2.2,29.61,NW,311,0.0,4.0,64,0.00,,CLR,0.00,0.00,VWS V14.01,2013-01-24 11:36:00,
2013-01-24 05:37:00,7.3,-2.3,29.60,NW,311,1.0,1.0,64,0.00,,CLR,0.00,0.00,VWS V14.01,2013-01-24 11:37:00,
2013-01-24 05:39:00,7.3,-2.3,29.61,SE,137,0.0,1.0,64,0.00,,CLR,0.00,0.00,VWS V14.01,2013-01-24 11:39:00,
2013-01-24 05:41:00,7.3,-2.3,29.61,NW,319,0.0,4.0,64,0.00,,CLR,0.00,0.00,VWS V14.01,2013-01-24 11:41:00,
2013-01-24 05:44:00,7.3,-2.3,29.61,NW,312,3.0,4.0,64,0.00,,CLR,0.00,0.00,VWS V14.01,2013-01-24 11:44:00,
2013-01-24 05:46:00,7.2,-2.4,29.61,East,91,2.0,2.0,64,0.00,,CLR,0.00,0.00,VWS V14.01,2013-01-24 11:46:00,
2013-01-24 05:47:00,7.2,-2.7,29.61,NNW,329,1.0,4.0,63,0.00,,CLR,0.00,0.00,VWS V14.01,2013-01-24 11:47:00,
2013-01-24 05:50:00,7.2,-2.7,29.61,WNW,299,0.0,4.0,63,0.00,,CLR,0.00,0.00,VWS V14.01,2013-01-24 11:50:00,
2013-01-24 05:52:00,7.2,-2.7,29.62,WNW,293,0.0,0.0,63,0.00,,CLR,0.00,0.00,VWS V14.01,2013-01-24 11:52:00,
2013-01-24 05:55:00,7.2,-2.7,29.62,NW,311,0.0,2.0,63,0.00,,CLR,0.00,0.00,VWS V14.01,2013-01-24 11:55:00,
2013-01-24 05:56:00,7.2,-2.7,29.62,ESE,110,1.0,2.0,63,0.00,,CLR,0.00,0.00,VWS V14.01,2013-01-24 11:56:00,
2013-01-24 06:01:00,7.2,-2.7,29.63,WNW,300,0.0,2.0,63,0.00,,CLR,0.00,0.00,VWS V14.01,2013-01-24 12:01:00,
2013-01-24 06:06:00,7.2,-2.7,29.63,WSW,245,0.0,4.0,63,0.00,,CLR,0.00,0.00,VWS V14.01,2013-01-24 12:06:00,
2013-01-24 06:09:00,7.1,-2.8,29.63,South,186,0.0,4.0,63,0.00,,CLR,0.00,0.00,VWS V14.01,2013-01-24 12:09:00,
2013-01-24 06:11:00,7.1,-2.8,29.63,WNW,290,0.0,1.0,63,0.00,,CLR,0.00,0.00,VWS V14.01,2013-01-24 12:11:00,
2013-01-24 06:15:00,7.0,-2.9,29.63,NW,323,0.0,4.0,63,0.00,,CLR,0.00,0.00,VWS V14.01,2013-01-24 12:15:00,
2013-01-24 06:17:00,7.0,-2.9,29.62,ESE,119,0.0,1.0,63,0.00,,CLR,0.00,0.00,VWS V14.01,2013-01-24 12:17:00,
2013-01-24 06:21:00,6.9,-3.0,29.62,WNW,302,0.0,2.0,63,0.00,,CLR,0.00,0.00,VWS V14.01,2013-01-24 12:21:00,
2013-01-24 06:26:00,6.8,-2.8,29.62,ESE,105,1.0,2.0,64,0.00,,CLR,0.00,0.00,VWS V14.01,2013-01-24 12:26:00,
2013-01-24 06:27:00,6.8,-2.8,29.62,NW,325,0.0,3.0,64,0.00,,CLR,0.00,0.00,VWS V14.01,2013-01-24 12:27:00,
2013-01-24 06:31:00,6.8,-2.8,29.62,NW,305,1.0,2.0,64,0.00,,CLR,0.00,0.00,VWS V14.01,2013-01-24 12:31:00,
2013-01-24 06:33:00,6.8,-2.8,29.62,NW,305,0.0,2.0,64,0.00,,CLR,0.00,0.00,VWS V14.01,2013-01-24 12:33:00,
2013-01-24 06:34:00,6.7,-2.9,29.62,WNW,299,0.0,0.0,64,0.00,,CLR,0.00,0.00,VWS V14.01,2013-01-24 12:34:00,
2013-01-24 06:39:00,6.7,-2.9,29.62,WNW,299,0.0,1.0,64,0.00,,CLR,0.00,0.00,VWS V14.01,2013-01-24 12:39:00,
2013-01-24 06:40:00,6.7,-2.9,29.62,NW,318,0.0,0.0,64,0.00,,CLR,0.00,0.00,VWS V14.01,2013-01-24 12:40:00,
2013-01-24 06:45:00,6.7,-2.9,29.62,SSE,156,0.0,1.0,64,0.00,,CLR,0.00,0.00,VWS V14.01,2013-01-24 12:45:00,
2013-01-24 06:50:00,6.7,-2.9,29.62,NW,313,0.0,1.0,64,0.00,,CLR,0.00,0.00,VWS V14.01,2013-01-24 12:50:00,
2013-01-24 06:52:00,6.7,-2.9,29.62,SSE,161,0.0,1.0,64,0.00,,CLR,0.00,0.00,VWS V14.01,2013-01-24 12:52:00,
2013-01-24 06:54:00,6.6,-3.3,29.63,NNW,329,1.0,2.0,63,0.00,,CLR,0.00,0.00,VWS V14.01,2013-01-24 12:54:00,
2013-01-24 06:56:00,6.6,-3.3,29.63,WNW,284,0.0,2.0,63,0.00,,CLR,0.00,0.00,VWS V14.01,2013-01-24 12:56:00,
2013-01-24 06:57:00,6.6,-3.3,29.63,NW,308,0.0,2.0,63,0.00,,CLR,0.00,0.00,VWS V14.01,2013-01-24 12:57:00,
2013-01-24 06:58:00,6.6,-3.3,29.63,WNW,300,1.0,1.0,63,0.00,,CLR,0.00,0.00,VWS V14.01,2013-01-24 12:58:00,
2013-01-24 07:03:00,6.6,-3.3,29.63,NNW,340,0.0,1.0,63,0.00,,CLR,0.00,0.00,VWS V14.01,2013-01-24 13:03:00,
2013-01-24 07:04:00,6.5,-3.4,29.63,SE,140,0.0,1.0,63,0.00,,CLR,0.00,0.00,VWS V14.01,2013-01-24 13:04:00,
2013-01-24 07:06:00,6.5,-3.4,29.63,SSE,160,0.0,1.0,63,0.00,,CLR,0.00,0.00,VWS V14.01,2013-01-24 13:06:00,
2013-01-24 07:10:00,6.5,-3.7,29.63,East,98,0.0,6.0,62,0.00,,CLR,0.00,0.00,VWS V14.01,2013-01-24 13:10:00,
2013-01-24 07:12:00,6.5,-3.7,29.63,East,94,0.0,0.0,62,0.00,,CLR,0.00,0.00,VWS V14.01,2013-01-24 13:12:00,
2013-01-24 07:13:00,6.5,-3.7,29.63,SE,127,0.0,2.0,62,0.00,,CLR,0.00,5.00,VWS V14.01,2013-01-24 13:13:00,
2013-01-24 07:14:00,6.5,-3.4,29.63,SE,141,0.0,0.0,63,0.00,,CLR,0.00,5.00,VWS V14.01,2013-01-24 13:14:00,
2013-01-24 07:15:00,6.5,-3.4,29.63,SE,141,0.0,1.0,63,0.00,,CLR,0.00,7.00,VWS V14.01,2013-01-24 13:15:00,
2013-01-24 07:21:00,6.5,-3.4,29.63,WNW,302,0.0,3.0,63,0.00,,CLR,0.00,11.00,VWS V14.01,2013-01-24 13:21:00,
2013-01-24 07:22:00,6.4,-3.5,29.63,SE,139,0.0,2.0,63,0.00,,CLR,0.00,12.00,VWS V14.01,2013-01-24 13:22:00,
2013-01-24 07:23:00,6.4,-3.5,29.63,ENE,58,0.0,1.0,63,0.00,,CLR,0.00,14.00,VWS V14.01,2013-01-24 13:23:00,
2013-01-24 07:26:00,6.4,-3.5,29.63,SSE,165,0.0,4.0,63,0.00,,CLR,0.00,16.00,VWS V14.01,2013-01-24 13:26:00,
2013-01-24 07:27:00,6.4,-3.5,29.64,ESE,106,0.0,2.0,63,0.00,,CLR,0.00,16.00,VWS V14.01,2013-01-24 13:27:00,
2013-01-24 07:32:00,6.4,-3.5,29.64,NW,311,0.0,4.0,63,0.00,,CLR,0.00,21.00,VWS V14.01,2013-01-24 13:32:00,
2013-01-24 07:35:00,6.4,-3.5,29.64,WNW,282,0.0,3.0,63,0.00,,CLR,0.00,25.00,VWS V14.01,2013-01-24 13:35:00,
2013-01-24 07:37:00,6.3,-3.6,29.64,SSE,159,2.0,2.0,63,0.00,,CLR,0.00,28.00,VWS V14.01,2013-01-24 13:37:00,
2013-01-24 07:38:00,6.4,-3.5,29.64,SW,236,1.0,2.0,63,0.00,,CLR,0.00,32.00,VWS V14.01,2013-01-24 13:38:00,
2013-01-24 07:42:00,6.4,-3.5,29.64,West,269,0.0,2.0,63,0.00,,CLR,0.00,40.00,VWS V14.01,2013-01-24 13:42:00,
2013-01-24 07:43:00,6.4,-3.5,29.64,WNW,285,3.0,3.0,63,0.00,,CLR,0.00,44.00,VWS V14.01,2013-01-24 13:43:00,
2013-01-24 07:44:00,6.4,-3.5,29.63,NNW,337,1.0,5.0,63,0.00,,CLR,0.00,46.00,VWS V14.01,2013-01-24 13:44:00,
2013-01-24 07:49:00,6.6,-3.0,29.64,WSW,239,0.0,2.0,64,0.00,,CLR,0.00,49.00,VWS V14.01,2013-01-24 13:49:00,
2013-01-24 07:50:00,6.6,-3.0,29.64,WNW,288,0.0,3.0,64,0.00,,CLR,0.00,51.00,VWS V14.01,2013-01-24 13:50:00,
2013-01-24 07:53:00,6.7,-3.2,29.65,WNW,287,0.0,1.0,63,0.00,,CLR,0.00,56.00,VWS V14.01,2013-01-24 13:53:00,
2013-01-24 07:57:00,6.7,-3.2,29.64,SSE,157,0.0,1.0,63,0.00,,CLR,0.00,58.00,VWS V14.01,2013-01-24 13:57:00,
2013-01-24 07:58:00,6.8,-3.1,29.64,East,86,0.0,1.0,63,0.00,,CLR,0.00,63.00,VWS V14.01,2013-01-24 13:58:00,
2013-01-24 08:03:00,6.9,-3.0,29.64,WSW,246,0.0,0.0,63,0.00,,CLR,0.00,56.00,VWS V14.01,2013-01-24 14:03:00,
2013-01-24 08:04:00,7.0,-2.9,29.65,ESE,107,1.0,1.0,63,0.00,,CLR,0.00,54.00,VWS V14.01,2013-01-24 14:04:00,
2013-01-24 08:06:00,7.0,-2.9,29.64,ESE,105,1.0,1.0,63,0.00,,CLR,0.00,54.00,VWS V14.01,2013-01-24 14:06:00,
2013-01-24 08:11:00,7.1,-3.2,29.64,NW,309,0.0,1.0,62,0.00,,CLR,0.00,67.00,VWS V14.01,2013-01-24 14:11:00,
2013-01-24 08:12:00,7.0,-3.3,29.65,NW,309,0.0,0.0,62,0.00,,CLR,0.00,69.00,VWS V14.01,2013-01-24 14:12:00,
2013-01-24 08:16:00,7.1,-3.2,29.65,SW,215,0.0,2.0,62,0.00,,CLR,0.00,95.00,VWS V14.01,2013-01-24 14:16:00,
2013-01-24 08:18:00,7.1,-3.2,29.65,NW,323,0.0,2.0,62,0.00,,CLR,0.00,109.00,VWS V14.01,2013-01-24 14:18:00,
2013-01-24 08:21:00,7.2,-3.1,29.66,NE,48,0.0,2.0,62,0.00,,CLR,0.00,116.00,VWS V14.01,2013-01-24 14:21:00,
2013-01-24 08:23:00,7.2,-3.1,29.66,WSW,255,0.0,2.0,62,0.00,,CLR,0.00,116.00,VWS V14.01,2013-01-24 14:23:00,
2013-01-24 08:26:00,7.4,-2.9,29.66,WNW,292,0.0,0.0,62,0.00,,CLR,0.00,135.00,VWS V14.01,2013-01-24 14:26:00,
2013-01-24 08:28:00,7.4,-2.9,29.66,WNW,293,0.0,0.0,62,0.00,,CLR,0.00,141.00,VWS V14.01,2013-01-24 14:28:00,
2013-01-24 08:31:00,7.6,-2.7,29.66,WNW,302,1.0,4.0,62,0.00,,CLR,0.00,148.00,VWS V14.01,2013-01-24 14:31:00,
2013-01-24 08:32:00,7.7,-2.6,29.67,WNW,302,0.0,1.0,62,0.00,,CLR,0.00,167.00,VWS V14.01,2013-01-24 14:32:00,
2013-01-24 08:35:00,7.9,-2.4,29.67,WNW,302,0.0,2.0,62,0.00,,CLR,0.00,137.00,VWS V14.01,2013-01-24 14:35:00,
2013-01-24 08:36:00,7.9,-2.4,29.67,WNW,302,0.0,0.0,62,0.00,,CLR,0.00,139.00,VWS V14.01,2013-01-24 14:36:00,
2013-01-24 08:37:00,8.1,-2.2,29.67,NW,326,0.0,3.0,62,0.00,,CLR,0.00,107.00,VWS V14.01,2013-01-24 14:37:00,
2013-01-24 08:41:00,8.3,-2.0,29.67,South,173,0.0,4.0,62,0.00,,CLR,0.00,160.00,VWS V14.01,2013-01-24 14:41:00,
2013-01-24 08:42:00,8.4,-2.3,29.67,East,101,0.0,5.0,61,0.00,,CLR,0.00,171.00,VWS V14.01,2013-01-24 14:42:00,
2013-01-24 08:43:00,8.5,-2.2,29.67,East,101,0.0,1.0,61,0.00,,CLR,0.00,181.00,VWS V14.01,2013-01-24 14:43:00,
2013-01-24 08:46:00,8.5,-2.2,29.67,SE,130,0.0,2.0,61,0.00,,CLR,0.00,186.00,VWS V14.01,2013-01-24 14:46:00,
2013-01-24 08:50:00,8.7,-2.0,29.67,WNW,302,1.0,2.0,61,0.00,,CLR,0.00,181.00,VWS V14.01,2013-01-24 14:50:00,
2013-01-24 08:51:00,8.8,-1.9,29.67,ESE,104,4.0,4.0,61,0.00,,CLR,0.00,148.00,VWS V14.01,2013-01-24 14:51:00,
2013-01-24 08:53:00,9.0,-1.7,29.67,ESE,123,0.0,0.0,61,0.00,,CLR,0.00,165.00,VWS V14.01,2013-01-24 14:53:00,
2013-01-24 08:56:00,9.1,-1.6,29.67,NW,321,2.0,4.0,61,0.00,,CLR,0.00,209.00,VWS V14.01,2013-01-24 14:56:00,
2013-01-24 08:58:00,9.2,-1.5,29.68,NNW,329,3.0,4.0,61,0.00,,CLR,0.00,244.00,VWS V14.01,2013-01-24 14:58:00,
2013-01-24 09:03:00,9.4,-1.3,29.68,West,276,0.0,1.0,61,0.00,,CLR,0.00,223.00,VWS V14.01,2013-01-24 15:03:00,
2013-01-24 09:04:00,9.5,-1.2,29.68,West,276,0.0,1.0,61,0.00,,CLR,0.00,225.00,VWS V14.01,2013-01-24 15:04:00,
2013-01-24 09:07:00,9.7,-0.7,29.68,West,276,0.0,1.0,62,0.00,,CLR,0.00,220.00,VWS V14.01,2013-01-24 15:07:00,
2013-01-24 09:08:00,9.8,-0.6,29.68,West,276,0.0,1.0,62,0.00,,CLR,0.00,230.00,VWS V14.01,2013-01-24 15:08:00,
2013-01-24 09:09:00,9.9,-0.9,29.68,West,276,0.0,0.0,61,0.00,,CLR,0.00,202.00,VWS V14.01,2013-01-24 15:09:00,
2013-01-24 09:13:00,10.1,-0.7,29.68,WNW,296,2.0,4.0,61,0.00,,CLR,0.00,218.00,VWS V14.01,2013-01-24 15:13:00,
2013-01-24 09:14:00,10.1,-1.0,29.68,ESE,109,0.0,2.0,60,0.00,,CLR,0.00,234.00,VWS V14.01,2013-01-24 15:14:00,
2013-01-24 09:19:00,10.4,-0.4,29.68,East,96,0.0,0.0,61,0.00,,CLR,0.00,225.00,VWS V14.01,2013-01-24 15:19:00,
2013-01-24 09:24:00,10.7,-0.4,29.69,WNW,300,1.0,4.0,60,0.00,,CLR,0.00,269.00,VWS V14.01,2013-01-24 15:24:00,
2013-01-24 09:25:00,10.8,-0.3,29.69,NNW,342,0.0,2.0,60,0.00,,CLR,0.00,248.00,VWS V14.01,2013-01-24 15:25:00,
2013-01-24 09:30:00,11.0,-0.2,29.69,North,360,0.0,2.0,60,0.00,,CLR,0.00,265.00,VWS V14.01,2013-01-24 15:30:00,
2013-01-24 09:31:00,11.1,-0.1,29.69,North,360,0.0,1.0,60,0.00,,CLR,0.00,246.00,VWS V14.01,2013-01-24 15:31:00,
2013-01-24 09:35:00,11.3,-0.2,29.69,WNW,295,0.0,1.0,59,0.00,,CLR,0.00,257.00,VWS V14.01,2013-01-24 15:35:00,
2013-01-24 09:36:00,11.4,-0.1,29.69,NNW,341,0.0,3.0,59,0.00,,CLR,0.00,281.00,VWS V14.01,2013-01-24 15:36:00,
2013-01-24 09:38:00,11.4,-0.1,29.68,ESE,107,0.0,2.0,59,0.00,,CLR,0.00,251.00,VWS V14.01,2013-01-24 15:38:00,
2013-01-24 09:40:00,11.6,0.1,29.68,NNW,330,4.0,4.0,59,0.00,,CLR,0.00,244.00,VWS V14.01,2013-01-24 15:40:00,
2013-01-24 09:43:00,11.6,0.1,29.69,NW,310,0.0,3.0,59,0.00,,CLR,0.00,253.00,VWS V14.01,2013-01-24 15:43:00,
2013-01-24 09:44:00,11.7,0.2,29.68,NW,314,3.0,5.0,59,0.00,,CLR,0.00,244.00,VWS V14.01,2013-01-24 15:44:00,
2013-01-24 09:45:00,11.7,0.2,29.69,SSE,162,0.0,3.0,59,0.00,,CLR,0.00,237.00,VWS V14.01,2013-01-24 15:45:00,
2013-01-24 09:48:00,11.8,0.2,29.69,SSE,162,0.0,0.0,59,0.00,,CLR,0.00,267.00,VWS V14.01,2013-01-24 15:48:00,
2013-01-24 09:50:00,11.9,0.3,29.69,SSE,162,0.0,1.0,59,0.00,,CLR,0.00,299.00,VWS V14.01,2013-01-24 15:50:00,
2013-01-24 09:52:00,12.1,0.5,29.69,West,278,3.0,4.0,59,0.00,,CLR,0.00,281.00,VWS V14.01,2013-01-24 15:52:00,
2013-01-24 09:55:00,12.2,0.3,29.68,NE,40,0.0,1.0,58,0.00,,CLR,0.00,281.00,VWS V14.01,2013-01-24 15:55:00,
2013-01-24 09:58:00,12.3,0.3,29.69,NNW,338,0.0,0.0,58,0.00,,CLR,0.00,313.00,VWS V14.01,2013-01-24 15:58:00,
2013-01-24 09:59:00,12.3,0.3,29.69,NNW,338,0.0,1.0,58,0.00,,CLR,0.00,313.00,VWS V14.01,2013-01-24 15:59:00,
2013-01-24 10:00:00,12.4,0.4,29.69,NNW,338,0.0,0.0,58,0.00,,CLR,0.00,306.00,VWS V14.01,2013-01-24 16:00:00,
2013-01-24 10:03:00,12.8,0.8,29.68,East,92,2.0,4.0,58,0.00,,CLR,0.00,301.00,VWS V14.01,2013-01-24 16:03:00,
2013-01-24 10:05:00,13.0,1.0,29.68,ESE,121,1.0,2.0,58,0.00,,CLR,0.00,302.00,VWS V14.01,2013-01-24 16:05:00,
2013-01-24 10:08:00,13.2,0.8,29.68,ESE,121,1.0,1.0,57,0.00,,CLR,0.00,297.00,VWS V14.01,2013-01-24 16:08:00,
2013-01-24 10:11:00,13.5,1.1,29.68,North,5,0.0,2.0,57,0.00,,CLR,0.00,313.00,VWS V14.01,2013-01-24 16:11:00,
2013-01-24 10:14:00,13.5,0.7,29.68,WNW,301,1.0,3.0,56,0.00,,CLR,0.00,311.00,VWS V14.01,2013-01-24 16:14:00,
2013-01-24 10:19:00,13.5,1.1,29.68,WNW,303,0.0,4.0,57,0.00,,CLR,0.00,332.00,VWS V14.01,2013-01-24 16:19:00,
2013-01-24 10:20:00,13.5,1.1,29.68,WNW,303,1.0,2.0,57,0.00,,CLR,0.00,374.00,VWS V14.01,2013-01-24 16:20:00,
2013-01-24 10:26:00,14.0,1.6,29.69,SSE,165,0.0,1.0,57,0.00,,CLR,0.00,443.00,VWS V14.01,2013-01-24 16:26:00,
2013-01-24 10:31:00,14.3,1.5,29.68,WNW,292,0.0,2.0,56,0.00,,CLR,0.00,362.00,VWS V14.01,2013-01-24 16:31:00,
2013-01-24 10:33:00,14.4,1.6,29.68,WNW,293,0.0,2.0,56,0.00,,CLR,0.00,339.00,VWS V14.01,2013-01-24 16:33:00,
2013-01-24 10:34:00,14.6,1.8,29.68,WNW,293,1.0,1.0,56,0.00,,CLR,0.00,311.00,VWS V14.01,2013-01-24 16:34:00,
2013-01-24 10:37:00,14.8,2.0,29.69,WNW,292,0.0,1.0,56,0.00,,CLR,0.00,392.00,VWS V14.01,2013-01-24 16:37:00,
2013-01-24 10:40:00,15.0,1.8,29.68,WNW,292,0.0,0.0,55,0.00,,CLR,0.00,376.00,VWS V14.01,2013-01-24 16:40:00,
2013-01-24 10:44:00,15.4,2.1,29.68,WNW,292,0.0,0.0,55,0.00,,CLR,0.00,415.00,VWS V14.01,2013-01-24 16:44:00,
2013-01-24 10:45:00,15.6,2.3,29.68,WNW,293,0.0,3.0,55,0.00,,CLR,0.00,397.00,VWS V14.01,2013-01-24 16:45:00,
2013-01-24 10:49:00,15.8,2.1,29.68,NNE,28,1.0,1.0,54,0.00,,CLR,0.00,359.00,VWS V14.01,2013-01-24 16:49:00,
2013-01-24 10:51:00,15.8,2.1,29.68,NNE,28,0.0,1.0,54,0.00,,CLR,0.00,378.00,VWS V14.01,2013-01-24 16:51:00,
2013-01-24 10:55:00,16.3,2.6,29.68,East,98,0.0,1.0,54,0.00,,CLR,0.00,404.00,VWS V14.01,2013-01-24 16:55:00,
2013-01-24 10:57:00,16.7,2.5,29.68,East,80,0.0,2.0,53,0.00,,CLR,0.00,461.00,VWS V14.01,2013-01-24 16:57:00,
2013-01-24 10:58:00,16.8,2.7,29.68,East,79,0.0,1.0,53,0.00,,CLR,0.00,455.00,VWS V14.01,2013-01-24 16:58:00,
2013-01-24 11:02:00,17.3,2.7,29.68,ESE,110,0.0,2.0,52,0.00,,CLR,0.00,420.00,VWS V14.01,2013-01-24 17:02:00,
2013-01-24 11:04:00,17.5,2.9,29.68,ESE,115,0.0,4.0,52,0.00,,CLR,0.00,446.00,VWS V14.01,2013-01-24 17:04:00,
2013-01-24 11:06:00,17.7,3.1,29.68,East,89,1.0,2.0,52,0.00,,CLR,0.00,396.00,VWS V14.01,2013-01-24 17:06:00,
2013-01-24 11:09:00,18.2,3.1,29.69,East,98,0.0,1.0,51,0.00,,CLR,0.00,501.00,VWS V14.01,2013-01-24 17:09:00,
2013-01-24 11:12:00,18.5,3.4,29.68,East,98,0.0,1.0,51,0.00,,CLR,0.00,468.00,VWS V14.01,2013-01-24 17:12:00,
2013-01-24 11:14:00,18.5,3.0,29.68,ESE,115,0.0,1.0,50,0.00,,CLR,0.00,446.00,VWS V14.01,2013-01-24 17:14:00,
2013-01-24 11:15:00,18.6,3.5,29.68,East,99,0.0,2.0,51,0.00,,CLR,0.00,461.00,VWS V14.01,2013-01-24 17:15:00,
2013-01-24 11:17:00,18.8,3.7,29.68,East,99,0.0,1.0,51,0.00,,CLR,0.00,450.00,VWS V14.01,2013-01-24 17:17:00,
2013-01-24 11:21:00,19.1,3.5,29.69,East,86,1.0,2.0,50,0.00,,CLR,0.00,499.00,VWS V14.01,2013-01-24 17:21:00,
2013-01-24 11:26:00,19.3,3.3,29.68,NNW,335,1.0,4.0,49,0.00,,CLR,0.00,517.00,VWS V14.01,2013-01-24 17:26:00,
2013-01-24 11:27:00,19.2,3.2,29.69,NW,318,0.0,3.0,49,0.00,,CLR,0.00,482.00,VWS V14.01,2013-01-24 17:27:00,
2013-01-24 11:30:00,19.1,3.5,29.68,ESE,108,0.0,1.0,50,0.00,,CLR,0.00,446.00,VWS V14.01,2013-01-24 17:30:00,
2013-01-24 11:31:00,19.1,3.5,29.68,ESE,108,0.0,0.0,50,0.00,,CLR,0.00,446.00,VWS V14.01,2013-01-24 17:31:00,
2013-01-24 11:36:00,19.3,3.7,29.67,ENE,69,0.0,1.0,50,0.00,,CLR,0.00,512.00,VWS V14.01,2013-01-24 17:36:00,
2013-01-24 11:42:00,19.9,3.8,29.67,East,82,1.0,2.0,49,0.00,,CLR,0.00,489.00,VWS V14.01,2013-01-24 17:42:00,
2013-01-24 11:43:00,20.0,3.9,29.67,East,92,1.0,1.0,49,0.00,,CLR,0.00,454.00,VWS V14.01,2013-01-24 17:43:00,
2013-01-24 11:45:00,20.2,4.1,29.67,East,96,6.0,6.0,49,0.00,,CLR,0.00,367.00,VWS V14.01,2013-01-24 17:45:00,
2013-01-24 11:48:00,20.3,4.2,29.67,West,275,1.0,2.0,49,0.00,,CLR,0.00,292.00,VWS V14.01,2013-01-24 17:48:00,
2013-01-24 11:49:00,20.3,3.8,29.67,NW,322,0.0,4.0,48,0.00,,CLR,0.00,279.00,VWS V14.01,2013-01-24 17:49:00,
2013-01-24 11:50:00,20.3,3.8,29.67,ESE,103,0.0,2.0,48,0.00,,CLR,0.00,271.00,VWS V14.01,2013-01-24 17:50:00,
2013-01-24 11:54:00,20.3,4.2,29.66,East,101,0.0,2.0,49,0.00,,CLR,0.00,329.00,VWS V14.01,2013-01-24 17:54:00,
2013-01-24 11:55:00,20.3,4.2,29.66,East,101,0.0,1.0,49,0.00,,CLR,0.00,346.00,VWS V14.01,2013-01-24 17:55:00,
2013-01-24 12:00:00,20.2,4.6,29.66,East,92,0.0,2.0,50,0.00,,CLR,0.00,418.00,VWS V14.01,2013-01-24 18:00:00,
2013-01-24 12:03:00,20.4,4.7,29.65,ENE,74,3.0,3.0,50,0.00,,CLR,0.00,299.00,VWS V14.01,2013-01-24 18:03:00,
2013-01-24 12:08:00,20.6,4.5,29.65,ESE,110,2.0,4.0,49,0.00,,CLR,0.00,325.00,VWS V14.01,2013-01-24 18:08:00,
2013-01-24 12:14:00,20.9,5.2,29.65,ESE,111,0.0,0.0,50,0.00,,CLR,0.00,534.00,VWS V14.01,2013-01-24 18:14:00,
2013-01-24 12:16:00,21.0,5.3,29.64,East,92,0.0,2.0,50,0.00,,CLR,0.00,469.00,VWS V14.01,2013-01-24 18:16:00,
2013-01-24 12:21:00,21.5,5.3,29.64,East,90,0.0,1.0,49,0.00,,CLR,0.00,422.00,VWS V14.01,2013-01-24 18:21:00,
2013-01-24 12:26:00,21.8,5.6,29.64,SE,126,0.0,0.0,49,0.00,,CLR,0.00,251.00,VWS V14.01,2013-01-24 18:26:00,
2013-01-24 12:27:00,21.8,5.6,29.64,SE,126,0.0,2.0,49,0.00,,CLR,0.00,279.00,VWS V14.01,2013-01-24 18:27:00,
2013-01-24 12:31:00,21.7,5.5,29.64,East,90,1.0,2.0,49,0.00,,CLR,0.00,207.00,VWS V14.01,2013-01-24 18:31:00,
2013-01-24 12:36:00,21.5,5.8,29.64,ESE,117,0.0,1.0,50,0.00,,CLR,0.00,211.00,VWS V14.01,2013-01-24 18:36:00,
2013-01-24 12:39:00,21.3,6.0,29.64,East,98,0.0,2.0,51,0.00,,CLR,0.00,234.00,VWS V14.01,2013-01-24 18:39:00,
2013-01-24 12:43:00,21.3,6.0,29.63,SE,134,0.0,2.0,51,0.00,,CLR,0.00,309.00,VWS V14.01,2013-01-24 18:43:00,
2013-01-24 12:46:00,21.5,6.2,29.63,East,95,0.0,2.0,51,0.00,,CLR,0.00,294.00,VWS V14.01,2013-01-24 18:46:00,
2013-01-24 12:48:00,21.6,6.3,29.63,East,98,0.0,2.0,51,0.00,,CLR,0.00,301.00,VWS V14.01,2013-01-24 18:48:00,
2013-01-24 12:49:00,21.6,6.3,29.63,East,98,0.0,1.0,51,0.00,,CLR,0.00,292.00,VWS V14.01,2013-01-24 18:49:00,
2013-01-24 12:51:00,21.7,6.4,29.63,SE,135,0.0,4.0,51,0.00,,CLR,0.00,292.00,VWS V14.01,2013-01-24 18:51:00,
2013-01-24 12:52:00,21.7,6.4,29.63,ESE,123,0.0,4.0,51,0.00,,CLR,0.00,304.00,VWS V14.01,2013-01-24 18:52:00,
2013-01-24 12:56:00,21.9,6.6,29.63,ESE,110,0.0,1.0,51,0.00,,CLR,0.00,274.00,VWS V14.01,2013-01-24 18:56:00,
2013-01-24 13:00:00,22.2,7.3,29.63,SE,129,0.0,1.0,52,0.00,,CLR,0.00,297.00,VWS V14.01,2013-01-24 19:00:00,
2013-01-24 13:01:00,22.3,7.4,29.63,SE,129,0.0,1.0,52,0.00,,CLR,0.00,301.00,VWS V14.01,2013-01-24 19:01:00,
2013-01-24 13:06:00,22.7,7.3,29.62,SE,130,4.0,4.0,51,0.00,,CLR,0.00,334.00,VWS V14.01,2013-01-24 19:06:00,
2013-01-24 13:08:00,22.7,7.3,29.62,ESE,117,4.0,4.0,51,0.00,,CLR,0.00,360.00,VWS V14.01,2013-01-24 19:08:00,
2013-01-24 13:13:00,23.0,7.6,29.62,ESE,123,0.0,2.0,51,0.00,,CLR,0.00,287.00,VWS V14.01,2013-01-24 19:13:00,
2013-01-24 13:14:00,23.1,7.7,29.62,ESE,122,0.0,1.0,51,0.00,,CLR,0.00,279.00,VWS V14.01,2013-01-24 19:14:00,
2013-01-24 13:16:00,23.2,7.8,29.62,SSE,148,2.0,2.0,51,0.00,,CLR,0.00,299.00,VWS V14.01,2013-01-24 19:16:00,
2013-01-24 13:19:00,23.4,7.5,29.62,ESE,123,1.0,4.0,50,0.00,,CLR,0.00,299.00,VWS V14.01,2013-01-24 19:19:00,
2013-01-24 13:21:00,23.5,7.6,29.62,East,98,2.0,2.0,50,0.00,,CLR,0.00,304.00,VWS V14.01,2013-01-24 19:21:00,
2013-01-24 13:22:00,23.5,7.6,29.62,SE,128,0.0,2.0,50,0.00,,CLR,0.00,299.00,VWS V14.01,2013-01-24 19:22:00,
2013-01-24 13:24:00,23.7,7.8,29.63,SE,134,0.0,4.0,50,0.00,,CLR,0.00,283.00,VWS V14.01,2013-01-24 19:24:00,
2013-01-24 13:25:00,23.7,7.8,29.63,SE,134,0.0,1.0,50,0.00,,CLR,0.00,278.00,VWS V14.01,2013-01-24 19:25:00,
2013-01-24 13:29:00,23.8,7.4,29.63,ESE,114,2.0,4.0,49,0.00,,CLR,0.00,267.00,VWS V14.01,2013-01-24 19:29:00,
2013-01-24 13:30:00,23.8,7.4,29.62,ESE,114,0.0,2.0,49,0.00,,CLR,0.00,271.00,VWS V14.01,2013-01-24 19:30:00,
2013-01-24 13:35:00,23.9,7.5,29.61,ESE,123,0.0,4.0,49,0.00,,CLR,0.00,320.00,VWS V14.01,2013-01-24 19:35:00,
2013-01-24 13:37:00,24.0,7.6,29.62,ESE,109,0.0,5.0,49,0.00,,CLR,0.00,336.00,VWS V14.01,2013-01-24 19:37:00,
2013-01-24 13:40:00,24.2,7.3,29.61,ESE,119,0.0,6.0,48,0.00,,CLR,0.00,299.00,VWS V14.01,2013-01-24 19:40:00,
2013-01-24 13:42:00,24.3,7.4,29.61,ESE,118,0.0,1.0,48,0.00,,CLR,0.00,330.00,VWS V14.01,2013-01-24 19:42:00,
2013-01-24 13:43:00,24.4,7.5,29.61,ESE,118,1.0,1.0,48,0.00,,CLR,0.00,295.00,VWS V14.01,2013-01-24 19:43:00,
2013-01-24 13:47:00,24.6,7.7,29.61,East,90,0.0,5.0,48,0.00,,CLR,0.00,251.00,VWS V14.01,2013-01-24 19:47:00,
2013-01-24 13:49:00,24.6,7.7,29.61,SE,146,0.0,4.0,48,0.00,,CLR,0.00,285.00,VWS V14.01,2013-01-24 19:49:00,
2013-01-24 13:50:00,24.6,7.7,29.60,SE,129,0.0,6.0,48,0.00,,CLR,0.00,383.00,VWS V14.01,2013-01-24 19:50:00,
2013-01-24 13:54:00,24.7,7.8,29.60,ESE,107,1.0,4.0,48,0.00,,CLR,0.00,318.00,VWS V14.01,2013-01-24 19:54:00,
2013-01-24 13:55:00,24.7,7.8,29.60,ESE,110,0.0,1.0,48,0.00,,CLR,0.00,338.00,VWS V14.01,2013-01-24 19:55:00,
2013-01-24 14:00:00,24.9,7.5,29.60,SE,130,0.0,4.0,47,0.00,,CLR,0.00,325.00,VWS V14.01,2013-01-24 20:00:00,
2013-01-24 14:01:00,25.0,7.6,29.60,South,176,1.0,2.0,47,0.00,,CLR,0.00,251.00,VWS V14.01,2013-01-24 20:01:00,
2013-01-24 14:02:00,25.0,7.6,29.60,East,92,2.0,5.0,47,0.00,,CLR,0.00,229.00,VWS V14.01,2013-01-24 20:02:00,
2013-01-24 14:05:00,24.9,7.5,29.60,ESE,123,4.0,7.0,47,0.00,,CLR,0.00,229.00,VWS V14.01,2013-01-24 20:05:00,
2013-01-24 14:06:00,24.9,7.5,29.60,SE,125,0.0,6.0,47,0.00,,CLR,0.00,232.00,VWS V14.01,2013-01-24 20:06:00,
2013-01-24 14:08:00,24.8,7.9,29.60,ESE,121,4.0,5.0,48,0.00,,CLR,0.00,255.00,VWS V14.01,2013-01-24 20:08:00,
2013-01-24 14:11:00,24.7,7.8,29.59,SE,129,2.0,4.0,48,0.00,,CLR,0.00,251.00,VWS V14.01,2013-01-24 20:11:00,
2013-01-24 14:12:00,24.6,7.7,29.59,East,82,3.0,4.0,48,0.00,,CLR,0.00,267.00,VWS V14.01,2013-01-24 20:12:00,
2013-01-24 14:16:00,24.5,7.6,29.59,SE,132,1.0,4.0,48,0.00,,CLR,0.00,306.00,VWS V14.01,2013-01-24 20:16:00,
2013-01-24 14:17:00,24.5,7.6,29.59,SE,132,1.0,1.0,48,0.00,,CLR,0.00,309.00,VWS V14.01,2013-01-24 20:17:00,
2013-01-24 14:20:00,24.7,7.8,29.59,ESE,113,2.0,4.0,48,0.00,,CLR,0.00,278.00,VWS V14.01,2013-01-24 20:20:00,
2013-01-24 14:23:00,24.8,7.9,29.59,ESE,113,6.0,8.0,48,0.00,,CLR,0.00,236.00,VWS V14.01,2013-01-24 20:23:00,
2013-01-24 14:25:00,24.8,7.9,29.59,SSE,147,1.0,6.0,48,0.00,,CLR,0.00,265.00,VWS V14.01,2013-01-24 20:25:00,
2013-01-24 14:26:00,24.9,8.0,29.59,ESE,117,1.0,4.0,48,0.00,,CLR,0.00,258.00,VWS V14.01,2013-01-24 20:26:00,
2013-01-24 14:27:00,24.9,8.0,29.59,SE,138,0.0,2.0,48,0.00,,CLR,0.00,248.00,VWS V14.01,2013-01-24 20:27:00,
2013-01-24 14:30:00,24.9,8.0,29.59,SE,145,0.0,6.0,48,0.00,,CLR,0.00,243.00,VWS V14.01,2013-01-24 20:30:00,
2013-01-24 14:33:00,24.9,8.0,29.59,SE,124,2.0,4.0,48,0.00,,CLR,0.00,216.00,VWS V14.01,2013-01-24 20:33:00,
2013-01-24 14:34:00,24.9,8.0,29.59,ESE,115,0.0,0.0,48,0.00,,CLR,0.00,199.00,VWS V14.01,2013-01-24 20:34:00,
2013-01-24 14:38:00,24.8,8.4,29.58,SE,130,2.0,4.0,49,0.00,,CLR,0.00,171.00,VWS V14.01,2013-01-24 20:38:00,
2013-01-24 14:43:00,24.7,8.3,29.59,ESE,114,0.0,2.0,49,0.00,,CLR,0.00,162.00,VWS V14.01,2013-01-24 20:43:00,
2013-01-24 14:44:00,24.7,8.3,29.59,ESE,111,1.0,2.0,49,0.00,,CLR,0.00,167.00,VWS V14.01,2013-01-24 20:44:00,
2013-01-24 14:46:00,24.6,8.2,29.59,SE,127,1.0,3.0,49,0.00,,CLR,0.00,141.00,VWS V14.01,2013-01-24 20:46:00,
2013-01-24 14:49:00,24.4,8.4,29.59,ESE,105,0.0,4.0,50,0.00,,CLR,0.00,113.00,VWS V14.01,2013-01-24 20:49:00,
2013-01-24 14:50:00,24.3,8.4,29.59,ESE,111,0.0,4.0,50,0.00,,CLR,0.00,107.00,VWS V14.01,2013-01-24 20:50:00,
2013-01-24 14:52:00,24.2,8.3,29.58,ESE,107,0.0,2.0,50,0.00,,CLR,0.00,98.00,VWS V14.01,2013-01-24 20:52:00,
2013-01-24 14:55:00,24.1,8.2,29.58,ESE,105,0.0,4.0,50,0.00,,CLR,0.00,95.00,VWS V14.01,2013-01-24 20:55:00,
2013-01-24 14:57:00,23.9,8.0,29.58,ESE,107,0.0,2.0,50,0.00,,CLR,0.00,93.00,VWS V14.01,2013-01-24 20:57:00,
2013-01-24 14:58:00,23.9,8.0,29.58,SE,133,0.0,1.0,50,0.00,,CLR,0.00,93.00,VWS V14.01,2013-01-24 20:58:00,
2013-01-24 14:59:00,23.9,8.0,29.58,SE,133,1.0,1.0,50,0.00,,CLR,0.00,91.00,VWS V14.01,2013-01-24 20:59:00,
2013-01-24 15:03:00,23.7,7.8,29.58,SE,132,4.0,5.0,50,0.00,,CLR,0.00,98.00,VWS V14.01,2013-01-24 21:03:00,
2013-01-24 15:04:00,23.6,8.1,29.58,SE,132,4.0,6.0,51,0.00,,CLR,0.00,98.00,VWS V14.01,2013-01-24 21:04:00,
2013-01-24 15:05:00,23.6,8.1,29.58,ENE,78,0.0,4.0,51,0.00,,CLR,0.00,97.00,VWS V14.01,2013-01-24 21:05:00,
2013-01-24 15:08:00,23.6,7.7,29.58,SSE,150,4.0,4.0,50,0.00,,CLR,0.00,93.00,VWS V14.01,2013-01-24 21:08:00,
2013-01-24 15:09:00,23.6,7.7,29.58,East,84,3.0,7.0,50,0.00,,CLR,0.00,95.00,VWS V14.01,2013-01-24 21:09:00,
2013-01-24 15:11:00,23.5,7.2,29.58,ESE,113,1.0,6.0,49,0.00,,CLR,0.00,97.00,VWS V14.01,2013-01-24 21:11:00,
2013-01-24 15:14:00,23.4,7.1,29.58,ESE,113,2.0,4.0,49,0.00,,CLR,0.00,93.00,VWS V14.01,2013-01-24 21:14:00,
2013-01-24 15:17:00,23.3,7.0,29.58,ESE,109,2.0,2.0,49,0.00,,CLR,0.00,95.00,VWS V14.01,2013-01-24 21:17:00,
2013-01-24 15:19:00,23.2,6.9,29.58,ESE,115,4.0,5.0,49,0.00,,CLR,0.00,97.00,VWS V14.01,2013-01-24 21:19:00,
2013-01-24 15:20:00,23.2,7.3,29.58,ESE,113,1.0,4.0,50,0.00,,CLR,0.00,97.00,VWS V14.01,2013-01-24 21:20:00,
2013-01-24 15:21:00,23.1,6.8,29.58,SSE,164,0.0,5.0,49,0.00,,CLR,0.00,95.00,VWS V14.01,2013-01-24 21:21:00,
2013-01-24 15:25:00,23.1,7.2,29.57,SE,126,1.0,1.0,50,0.00,,CLR,0.00,84.00,VWS V14.01,2013-01-24 21:25:00,
2013-01-24 15:27:00,23.0,7.1,29.57,ESE,108,0.0,2.0,50,0.00,,CLR,0.00,83.00,VWS V14.01,2013-01-24 21:27:00,
2013-01-24 15:29:00,23.0,7.1,29.57,East,86,0.0,2.0,50,0.00,,CLR,0.00,81.00,VWS V14.01,2013-01-24 21:29:00,
2013-01-24 15:30:00,23.0,7.1,29.57,ESE,123,1.0,5.0,50,0.00,,CLR,0.00,79.00,VWS V14.01,2013-01-24 21:30:00,
2013-01-24 15:35:00,23.0,6.7,29.57,SE,132,2.0,5.0,49,0.00,,CLR,0.00,83.00,VWS V14.01,2013-01-24 21:35:00,
2013-01-24 15:36:00,23.0,6.7,29.57,East,99,2.0,7.0,49,0.00,,CLR,0.00,86.00,VWS V14.01,2013-01-24 21:36:00,
2013-01-24 15:41:00,23.0,6.7,29.57,SE,127,2.0,4.0,49,0.00,,CLR,0.00,86.00,VWS V14.01,2013-01-24 21:41:00,
2013-01-24 15:44:00,23.0,6.7,29.57,SSE,155,1.0,5.0,49,0.00,,CLR,0.00,83.00,VWS V14.01,2013-01-24 21:44:00,
2013-01-24 15:45:00,23.0,6.7,29.57,ESE,117,1.0,2.0,49,0.00,,CLR,0.00,83.00,VWS V14.01,2013-01-24 21:45:00,
2013-01-24 15:46:00,23.0,6.7,29.57,ESE,117,0.0,1.0,49,0.00,,CLR,0.00,81.00,VWS V14.01,2013-01-24 21:46:00,
2013-01-24 15:47:00,23.0,6.7,29.57,East,80,2.0,2.0,49,0.00,,CLR,0.00,77.00,VWS V14.01,2013-01-24 21:47:00,
2013-01-24 15:50:00,23.0,6.7,29.57,East,90,2.0,2.0,49,0.00,,CLR,0.00,69.00,VWS V14.01,2013-01-24 21:50:00,
2013-01-24 15:52:00,23.0,6.7,29.57,ESE,114,4.0,6.0,49,0.00,,CLR,0.00,62.00,VWS V14.01,2013-01-24 21:52:00,
2013-01-24 15:55:00,23.0,6.7,29.56,ESE,117,1.0,1.0,49,0.00,,CLR,0.00,53.00,VWS V14.01,2013-01-24 21:55:00,
2013-01-24 15:57:00,23.0,6.7,29.55,ESE,121,1.0,4.0,49,0.00,,CLR,0.00,49.00,VWS V14.01,2013-01-24 21:57:00,
2013-01-24 15:58:00,23.0,6.7,29.55,ESE,119,1.0,2.0,49,0.00,,CLR,0.00,47.00,VWS V14.01,2013-01-24 21:58:00,
2013-01-24 16:00:00,23.0,6.7,29.55,ESE,123,2.0,5.0,49,0.00,,CLR,0.00,42.00,VWS V14.01,2013-01-24 22:00:00,
2013-01-24 16:02:00,22.9,6.6,29.55,ESE,121,6.0,6.0,49,0.00,,CLR,0.00,40.00,VWS V14.01,2013-01-24 22:02:00,
2013-01-24 16:03:00,22.9,6.6,29.55,ESE,118,0.0,6.0,49,0.00,,CLR,0.00,42.00,VWS V14.01,2013-01-24 22:03:00,
2013-01-24 16:08:00,22.8,6.5,29.55,ESE,115,2.0,7.0,49,0.00,,CLR,0.00,42.00,VWS V14.01,2013-01-24 22:08:00,
2013-01-24 16:10:00,22.7,6.4,29.55,SE,126,2.0,5.0,49,0.00,,CLR,0.00,39.00,VWS V14.01,2013-01-24 22:10:00,
2013-01-24 16:12:00,22.7,6.9,29.55,SE,129,0.0,1.0,50,0.00,,CLR,0.00,37.00,VWS V14.01,2013-01-24 22:12:00,
2013-01-24 16:13:00,22.7,6.9,29.55,SE,132,1.0,6.0,50,0.00,,CLR,0.00,37.00,VWS V14.01,2013-01-24 22:13:00,
2013-01-24 16:15:00,22.7,6.9,29.55,ESE,117,0.0,4.0,50,0.00,,CLR,0.00,35.00,VWS V14.01,2013-01-24 22:15:00,
2013-01-24 16:20:00,22.6,7.2,29.55,SE,133,1.0,4.0,51,0.00,,CLR,0.00,35.00,VWS V14.01,2013-01-24 22:20:00,
2013-01-24 16:21:00,22.6,7.2,29.55,SE,126,2.0,8.0,51,0.00,,CLR,0.00,35.00,VWS V14.01,2013-01-24 22:21:00,
2013-01-24 16:26:00,22.5,7.1,29.55,South,179,0.0,2.0,51,0.00,,CLR,0.00,30.00,VWS V14.01,2013-01-24 22:26:00,
2013-01-24 16:27:00,22.5,7.1,29.55,ESE,109,7.0,7.0,51,0.00,,CLR,0.00,28.00,VWS V14.01,2013-01-24 22:27:00,
2013-01-24 16:31:00,22.5,7.1,29.55,SE,128,2.0,4.0,51,0.00,,CLR,0.00,25.00,VWS V14.01,2013-01-24 22:31:00,
2013-01-24 16:33:00,22.5,7.1,29.55,ESE,122,2.0,6.0,51,0.00,,CLR,0.00,23.00,VWS V14.01,2013-01-24 22:33:00,
2013-01-24 16:36:00,22.5,7.1,29.55,ESE,121,0.0,1.0,51,0.00,,CLR,0.00,21.00,VWS V14.01,2013-01-24 22:36:00,
2013-01-24 16:38:00,22.5,7.1,29.55,ESE,119,0.0,1.0,51,0.00,,CLR,0.00,19.00,VWS V14.01,2013-01-24 22:38:00,
2013-01-24 16:43:00,22.5,7.1,29.55,SE,126,5.0,5.0,51,0.00,,CLR,0.00,16.00,VWS V14.01,2013-01-24 22:43:00,
2013-01-24 16:45:00,22.6,7.2,29.55,ESE,121,0.0,2.0,51,0.00,,CLR,0.00,12.00,VWS V14.01,2013-01-24 22:45:00,
2013-01-24 16:49:00,22.6,7.2,29.55,ESE,121,0.0,2.0,51,0.00,,CLR,0.00,11.00,VWS V14.01,2013-01-24 22:49:00,
2013-01-24 16:50:00,22.6,7.2,29.55,ESE,121,0.0,1.0,51,0.00,,CLR,0.00,9.00,VWS V14.01,2013-01-24 22:50:00,
2013-01-24 16:52:00,22.7,7.7,29.55,ESE,121,1.0,1.0,52,0.00,,CLR,0.00,7.00,VWS V14.01,2013-01-24 22:52:00,
2013-01-24 16:55:00,22.7,7.3,29.55,ESE,121,1.0,4.0,51,0.00,,CLR,0.00,5.00,VWS V14.01,2013-01-24 22:55:00,
2013-01-24 16:57:00,22.7,7.3,29.55,SE,146,0.0,4.0,51,0.00,,CLR,0.00,5.00,VWS V14.01,2013-01-24 22:57:00,
2013-01-24 17:00:00,22.6,7.2,29.55,ESE,121,0.0,1.0,51,0.00,,CLR,0.00,0.00,VWS V14.01,2013-01-24 23:00:00,
2013-01-24 17:02:00,22.6,7.2,29.55,ESE,119,2.0,4.0,51,0.00,,CLR,0.00,0.00,VWS V14.01,2013-01-24 23:02:00,
2013-01-24 17:07:00,22.6,7.2,29.54,ESE,111,1.0,5.0,51,0.00,,CLR,0.00,0.00,VWS V14.01,2013-01-24 23:07:00,
2013-01-24 17:09:00,22.5,7.1,29.54,ESE,123,0.0,1.0,51,0.00,,CLR,0.00,0.00,VWS V14.01,2013-01-24 23:09:00,
2013-01-24 17:12:00,22.5,7.1,29.54,ESE,118,0.0,4.0,51,0.00,,CLR,0.00,0.00,VWS V14.01,2013-01-24 23:12:00,
2013-01-24 17:14:00,22.5,7.1,29.54,ESE,119,0.0,1.0,51,0.00,,CLR,0.00,0.00,VWS V14.01,2013-01-24 23:14:00,
2013-01-24 17:16:00,22.5,7.5,29.54,ESE,119,2.0,2.0,52,0.00,,CLR,0.00,0.00,VWS V14.01,2013-01-24 23:16:00,
2013-01-24 17:17:00,22.5,7.5,29.54,ESE,119,0.0,2.0,52,0.00,,CLR,0.00,0.00,VWS V14.01,2013-01-24 23:17:00,
2013-01-24 17:22:00,22.5,7.5,29.54,ESE,121,1.0,5.0,52,0.00,,CLR,0.00,0.00,VWS V14.01,2013-01-24 23:22:00,
2013-01-24 17:24:00,22.5,7.5,29.54,East,83,0.0,1.0,52,0.00,,CLR,0.00,0.00,VWS V14.01,2013-01-24 23:24:00,
2013-01-24 17:25:00,22.5,7.5,29.53,East,95,4.0,5.0,52,0.00,,CLR,0.00,0.00,VWS V14.01,2013-01-24 23:25:00,
2013-01-24 17:28:00,22.4,7.4,29.53,SE,126,1.0,4.0,52,0.00,,CLR,0.00,0.00,VWS V14.01,2013-01-24 23:28:00,
2013-01-24 17:29:00,22.4,7.4,29.53,SE,126,0.0,2.0,52,0.00,,CLR,0.00,0.00,VWS V14.01,2013-01-24 23:29:00,
2013-01-24 17:33:00,22.4,7.4,29.53,SE,131,0.0,0.0,52,0.00,,CLR,0.00,0.00,VWS V14.01,2013-01-24 23:33:00,
2013-01-24 17:34:00,22.4,7.4,29.53,SE,130,0.0,0.0,52,0.00,,CLR,0.00,0.00,VWS V14.01,2013-01-24 23:34:00,
2013-01-24 17:36:00,22.4,7.4,29.54,ESE,111,0.0,4.0,52,0.00,,CLR,0.00,0.00,VWS V14.01,2013-01-24 23:36:00,
2013-01-24 17:39:00,22.4,7.4,29.53,SE,140,0.0,1.0,52,0.00,,CLR,0.00,0.00,VWS V14.01,2013-01-24 23:39:00,
2013-01-24 17:41:00,22.4,7.4,29.53,ESE,114,0.0,1.0,52,0.00,,CLR,0.00,0.00,VWS V14.01,2013-01-24 23:41:00,
2013-01-24 17:43:00,22.4,7.4,29.54,SSE,152,2.0,4.0,52,0.00,,CLR,0.00,0.00,VWS V14.01,2013-01-24 23:43:00,
2013-01-24 17:46:00,22.3,7.4,29.54,SE,126,1.0,4.0,52,0.00,,CLR,0.00,0.00,VWS V14.01,2013-01-24 23:46:00,
2013-01-24 17:50:00,22.2,7.3,29.53,SE,135,0.0,2.0,52,0.00,,CLR,0.00,0.00,VWS V14.01,2013-01-24 23:50:00,
2013-01-24 17:51:00,22.2,7.3,29.53,SE,135,1.0,1.0,52,0.00,,CLR,0.00,0.00,VWS V14.01,2013-01-24 23:51:00,
2013-01-24 17:55:00,22.2,7.3,29.53,SE,130,5.0,5.0,52,0.00,,CLR,0.00,0.00,VWS V14.01,2013-01-24 23:55:00,
2013-01-24 17:56:00,22.2,7.3,29.53,SE,128,1.0,5.0,52,0.00,,CLR,0.00,0.00,VWS V14.01,2013-01-24 23:56:00,
2013-01-24 17:58:00,22.2,7.3,29.53,SE,144,1.0,4.0,52,0.00,,CLR,0.00,0.00,VWS V14.01,2013-01-24 23:58:00,
2013-01-24 18:00:00,22.2,7.3,29.53,SE,132,0.0,1.0,52,0.00,,CLR,0.00,0.00,VWS V14.01,2013-01-25 00:00:00,
2013-01-24 18:05:00,22.2,7.3,29.53,ESE,114,4.0,5.0,52,0.00,,CLR,0.00,0.00,VWS V14.01,2013-01-25 00:05:00,
2013-01-24 18:07:00,22.2,7.3,29.53,ESE,113,0.0,7.0,52,0.00,,CLR,0.00,0.00,VWS V14.01,2013-01-25 00:07:00,
2013-01-24 18:13:00,22.1,7.2,29.52,ESE,116,0.0,6.0,52,0.00,,CLR,0.00,0.00,VWS V14.01,2013-01-25 00:13:00,
2013-01-24 18:14:00,22.1,7.2,29.52,SE,129,1.0,4.0,52,0.00,,CLR,0.00,0.00,VWS V14.01,2013-01-25 00:14:00,
2013-01-24 18:15:00,22.1,7.2,29.52,SE,129,1.0,1.0,52,0.00,,CLR,0.00,0.00,VWS V14.01,2013-01-25 00:15:00,
2013-01-24 18:20:00,22.1,7.2,29.52,ESE,111,0.0,1.0,52,0.00,,CLR,0.00,0.00,VWS V14.01,2013-01-25 00:20:00,
2013-01-24 18:22:00,22.0,7.1,29.52,ENE,76,0.0,1.0,52,0.00,,CLR,0.00,0.00,VWS V14.01,2013-01-25 00:22:00,
2013-01-24 18:25:00,22.0,7.1,29.52,SSW,199,0.0,5.0,52,0.00,,CLR,0.00,0.00,VWS V14.01,2013-01-25 00:25:00,
2013-01-24 18:26:00,22.0,7.1,29.52,ESE,102,0.0,2.0,52,0.00,,CLR,0.00,0.00,VWS V14.01,2013-01-25 00:26:00,
2013-01-24 18:31:00,22.0,7.1,29.52,SSE,148,0.0,1.0,52,0.00,,CLR,0.00,0.00,VWS V14.01,2013-01-25 00:31:00,
2013-01-24 18:37:00,21.9,6.1,29.52,SE,130,0.0,1.0,50,0.00,,CLR,0.00,0.00,VWS V14.01,2013-01-25 00:37:00,
2013-01-24 18:40:00,21.8,6.0,29.52,SE,140,0.0,2.0,50,0.00,,CLR,0.00,0.00,VWS V14.01,2013-01-25 00:40:00,
2013-01-24 18:42:00,21.8,6.0,29.51,ESE,116,0.0,4.0,50,0.00,,CLR,0.00,0.00,VWS V14.01,2013-01-25 00:42:00,
2013-01-24 18:45:00,21.8,6.0,29.51,SE,129,1.0,4.0,50,0.00,,CLR,0.00,0.00,VWS V14.01,2013-01-25 00:45:00,
2013-01-24 18:46:00,21.8,6.0,29.51,ESE,110,2.0,6.0,50,0.00,,CLR,0.00,0.00,VWS V14.01,2013-01-25 00:46:00,
2013-01-24 18:48:00,21.7,5.9,29.51,ESE,112,1.0,6.0,50,0.00,,CLR,0.00,0.00,VWS V14.01,2013-01-25 00:48:00,
2013-01-24 18:50:00,21.7,5.9,29.51,ESE,118,0.0,2.0,50,0.00,,CLR,0.00,0.00,VWS V14.01,2013-01-25 00:50:00,
2013-01-24 18:51:00,21.7,5.9,29.51,East,95,4.0,4.0,50,0.00,,CLR,0.00,0.00,VWS V14.01,2013-01-25 00:51:00,
2013-01-24 18:53:00,21.7,5.9,29.51,SE,126,0.0,4.0,50,0.00,,CLR,0.00,0.00,VWS V14.01,2013-01-25 00:53:00,
2013-01-24 18:56:00,21.7,6.4,29.50,ESE,106,2.0,3.0,51,0.00,,CLR,0.00,0.00,VWS V14.01,2013-01-25 00:56:00,
2013-01-24 18:59:00,21.6,5.8,29.50,ESE,103,1.0,7.0,50,0.00,,CLR,0.00,0.00,VWS V14.01,2013-01-25 00:59:00,
2013-01-24 19:00:00,21.6,5.8,29.50,ESE,116,1.0,6.0,50,0.00,,CLR,0.00,0.00,VWS V14.01,2013-01-25 01:00:00,
2013-01-24 19:03:00,21.6,6.3,29.50,ESE,119,1.0,1.0,51,0.00,,CLR,0.00,0.00,VWS V14.01,2013-01-25 01:03:00,
2013-01-24 19:06:00,21.5,6.2,29.50,ESE,119,0.0,6.0,51,0.00,,CLR,0.00,0.00,VWS V14.01,2013-01-25 01:06:00,
2013-01-24 19:07:00,21.5,6.2,29.50,ESE,109,0.0,4.0,51,0.00,,CLR,0.00,0.00,VWS V14.01,2013-01-25 01:07:00,
2013-01-24 19:09:00,21.5,6.2,29.50,East,101,1.0,7.0,51,0.00,,CLR,0.00,0.00,VWS V14.01,2013-01-25 01:09:00,
2013-01-24 19:11:00,21.5,6.2,29.50,ESE,108,2.0,6.0,51,0.00,,CLR,0.00,0.00,VWS V14.01,2013-01-25 01:11:00,
2013-01-24 19:14:00,21.4,6.1,29.50,ESE,108,1.0,4.0,51,0.00,,CLR,0.00,0.00,VWS V14.01,2013-01-25 01:14:00,
2013-01-24 19:15:00,21.4,6.1,29.50,ESE,117,2.0,6.0,51,0.00,,CLR,0.00,0.00,VWS V14.01,2013-01-25 01:15:00,
2013-01-24 19:20:00,21.4,6.1,29.49,SE,126,2.0,5.0,51,0.00,,CLR,0.00,0.00,VWS V14.01,2013-01-25 01:20:00,
2013-01-24 19:21:00,21.3,6.0,29.49,SSE,153,2.0,6.0,51,0.00,,CLR,0.00,0.00,VWS V14.01,2013-01-25 01:21:00,
2013-01-24 19:23:00,21.3,6.4,29.49,ESE,103,8.0,8.0,52,0.00,,CLR,0.00,0.00,VWS V14.01,2013-01-25 01:23:00,
2013-01-24 19:26:00,21.3,6.4,29.49,ESE,119,7.0,7.0,52,0.00,,CLR,0.00,0.00,VWS V14.01,2013-01-25 01:26:00,
2013-01-24 19:28:00,21.2,6.3,29.49,ESE,118,1.0,2.0,52,0.00,,CLR,0.00,0.00,VWS V14.01,2013-01-25 01:28:00,
2013-01-24 19:30:00,21.2,6.3,29.49,ESE,107,0.0,4.0,52,0.00,,CLR,0.00,0.00,VWS V14.01,2013-01-25 01:30:00,
2013-01-24 19:31:00,21.2,6.3,29.49,SE,130,1.0,4.0,52,0.00,,CLR,0.00,0.00,VWS V14.01,2013-01-25 01:31:00,
2013-01-24 19:34:00,21.2,6.3,29.49,SE,138,0.0,1.0,52,0.00,,CLR,0.00,0.00,VWS V14.01,2013-01-25 01:34:00,
2013-01-24 19:37:00,21.2,6.3,29.49,SE,130,0.0,5.0,52,0.00,,CLR,0.00,0.00,VWS V14.01,2013-01-25 01:37:00,
2013-01-24 19:38:00,21.2,6.3,29.49,SE,133,0.0,2.0,52,0.00,,CLR,0.00,0.00,VWS V14.01,2013-01-25 01:38:00,
2013-01-24 19:41:00,21.2,6.3,29.49,ESE,113,1.0,4.0,52,0.00,,CLR,0.00,0.00,VWS V14.01,2013-01-25 01:41:00,
2013-01-24 19:43:00,21.2,6.3,29.49,SE,125,1.0,1.0,52,0.00,,CLR,0.00,0.00,VWS V14.01,2013-01-25 01:43:00,
2013-01-24 19:45:00,21.2,6.3,29.49,East,96,2.0,6.0,52,0.00,,CLR,0.00,0.00,VWS V14.01,2013-01-25 01:45:00,
2013-01-24 19:47:00,21.2,6.3,29.49,ESE,120,1.0,2.0,52,0.00,,CLR,0.00,0.00,VWS V14.01,2013-01-25 01:47:00,
2013-01-24 19:49:00,21.2,6.3,29.49,ESE,118,6.0,6.0,52,0.00,,CLR,0.00,0.00,VWS V14.01,2013-01-25 01:49:00,
2013-01-24 19:51:00,21.2,6.3,29.49,ESE,111,0.0,8.0,52,0.00,,CLR,0.00,0.00,VWS V14.01,2013-01-25 01:51:00,
2013-01-24 19:56:00,21.2,6.3,29.48,ESE,105,0.0,7.0,52,0.00,,CLR,0.00,0.00,VWS V14.01,2013-01-25 01:56:00,
2013-01-24 19:58:00,21.2,6.3,29.49,SE,128,4.0,4.0,52,0.00,,CLR,0.00,0.00,VWS V14.01,2013-01-25 01:58:00,
2013-01-24 20:02:00,21.1,6.2,29.48,ESE,110,1.0,6.0,52,0.00,,CLR,0.00,0.00,VWS V14.01,2013-01-25 02:02:00,
2013-01-24 20:03:00,21.1,6.2,29.48,ESE,110,1.0,5.0,52,0.00,,CLR,0.00,0.00,VWS V14.01,2013-01-25 02:03:00,
2013-01-24 20:04:00,21.1,6.2,29.48,ESE,110,0.0,2.0,52,0.00,,CLR,0.00,0.00,VWS V14.01,2013-01-25 02:04:00,
2013-01-24 20:08:00,21.1,6.2,29.47,ESE,116,0.0,2.0,52,0.00,,CLR,0.00,0.00,VWS V14.01,2013-01-25 02:08:00,
2013-01-24 20:09:00,21.1,6.2,29.48,East,90,2.0,4.0,52,0.00,,CLR,0.00,0.00,VWS V14.01,2013-01-25 02:09:00,
2013-01-24 20:10:00,21.1,6.2,29.47,East,95,6.0,7.0,52,0.00,,CLR,0.00,0.00,VWS V14.01,2013-01-25 02:10:00,
2013-01-24 20:13:00,21.1,6.2,29.48,ESE,114,0.0,4.0,52,0.00,,CLR,0.00,0.00,VWS V14.01,2013-01-25 02:13:00,
2013-01-24 20:15:00,21.1,6.2,29.48,SW,219,0.0,2.0,52,0.00,,CLR,0.00,0.00,VWS V14.01,2013-01-25 02:15:00,
2013-01-24 20:16:00,21.1,6.2,29.48,SE,130,0.0,1.0,52,0.00,,CLR,0.00,0.00,VWS V14.01,2013-01-25 02:16:00,
2013-01-24 20:20:00,21.1,6.2,29.47,ESE,115,0.0,4.0,52,0.00,,CLR,0.00,0.00,VWS V14.01,2013-01-25 02:20:00,
2013-01-24 20:21:00,21.0,6.2,29.47,ESE,102,0.0,2.0,52,0.00,,CLR,0.00,0.00,VWS V14.01,2013-01-25 02:21:00,
2013-01-24 20:22:00,21.0,6.2,29.47,ESE,112,2.0,2.0,52,0.00,,CLR,0.00,0.00,VWS V14.01,2013-01-25 02:22:00,
2013-01-24 20:26:00,21.0,6.2,29.47,SE,129,1.0,4.0,52,0.00,,CLR,0.00,0.00,VWS V14.01,2013-01-25 02:26:00,
2013-01-24 20:27:00,21.0,6.2,29.47,SE,136,1.0,2.0,52,0.00,,CLR,0.00,0.00,VWS V14.01,2013-01-25 02:27:00,
2013-01-24 20:31:00,20.9,6.5,29.47,ESE,110,4.0,4.0,53,0.00,,CLR,0.00,0.00,VWS V14.01,2013-01-25 02:31:00,
2013-01-24 20:34:00,20.9,6.5,29.48,ESE,103,1.0,2.0,53,0.00,,CLR,0.00,0.00,VWS V14.01,2013-01-25 02:34:00,
2013-01-24 20:36:00,20.9,6.5,29.48,ESE,115,1.0,6.0,53,0.00,,CLR,0.00,0.00,VWS V14.01,2013-01-25 02:36:00,
2013-01-24 20:38:00,20.9,6.5,29.48,ESE,122,6.0,6.0,53,0.00,,CLR,0.00,0.00,VWS V14.01,2013-01-25 02:38:00,
2013-01-24 20:42:00,20.9,6.5,29.47,ESE,113,1.0,2.0,53,0.00,,CLR,0.00,0.00,VWS V14.01,2013-01-25 02:42:00,
2013-01-24 20:43:00,20.9,6.5,29.47,East,101,4.0,7.0,53,0.00,,CLR,0.00,0.00,VWS V14.01,2013-01-25 02:43:00,
2013-01-24 20:45:00,20.8,6.4,29.47,ESE,121,1.0,2.0,53,0.00,,CLR,0.00,0.00,VWS V14.01,2013-01-25 02:45:00,
2013-01-24 20:47:00,20.8,6.4,29.47,ESE,120,5.0,7.0,53,0.00,,CLR,0.00,0.00,VWS V14.01,2013-01-25 02:47:00,
2013-01-24 20:52:00,20.8,6.4,29.47,ESE,107,5.0,6.0,53,0.00,,CLR,0.00,0.00,VWS V14.01,2013-01-25 02:52:00,
2013-01-24 20:53:00,20.8,6.4,29.47,ESE,122,0.0,5.0,53,0.00,,CLR,0.00,0.00,VWS V14.01,2013-01-25 02:53:00,
2013-01-24 20:57:00,20.8,6.4,29.46,ESE,121,2.0,4.0,53,0.00,,CLR,0.00,0.00,VWS V14.01,2013-01-25 02:57:00,
2013-01-24 20:58:00,20.8,6.4,29.46,ESE,115,1.0,7.0,53,0.00,,CLR,0.00,0.00,VWS V14.01,2013-01-25 02:58:00,
2013-01-24 20:59:00,20.8,6.4,29.46,East,88,1.0,2.0,53,0.00,,CLR,0.00,0.00,VWS V14.01,2013-01-25 02:59:00,
2013-01-24 21:00:00,20.8,6.4,29.46,SE,136,0.0,6.0,53,0.00,,CLR,0.00,0.00,VWS V14.01,2013-01-25 03:00:00,
2013-01-24 21:02:00,20.8,6.4,29.46,SE,126,0.0,4.0,53,0.00,,CLR,0.00,0.00,VWS V14.01,2013-01-25 03:02:00,
2013-01-24 21:03:00,20.8,6.4,29.46,SE,132,0.0,6.0,53,0.00,,CLR,0.00,0.00,VWS V14.01,2013-01-25 03:03:00,
2013-01-24 21:04:00,20.8,6.4,29.46,ESE,110,0.0,2.0,53,0.00,,CLR,0.00,0.00,VWS V14.01,2013-01-25 03:04:00,
2013-01-24 21:07:00,20.8,6.4,29.46,ESE,117,0.0,6.0,53,0.00,,CLR,0.00,0.00,VWS V14.01,2013-01-25 03:07:00,
2013-01-24 21:09:00,20.8,6.4,29.46,SSE,157,1.0,4.0,53,0.00,,CLR,0.00,0.00,VWS V14.01,2013-01-25 03:09:00,
2013-01-24 21:14:00,20.7,6.3,29.46,ESE,109,1.0,2.0,53,0.00,,CLR,0.00,0.00,VWS V14.01,2013-01-25 03:14:00,
2013-01-24 21:15:00,20.7,6.3,29.46,ESE,116,1.0,4.0,53,0.00,,CLR,0.00,0.00,VWS V14.01,2013-01-25 03:15:00,
2013-01-24 21:20:00,20.8,6.4,29.46,ESE,110,4.0,5.0,53,0.00,,CLR,0.00,0.00,VWS V14.01,2013-01-25 03:20:00,
2013-01-24 21:21:00,20.8,6.4,29.46,ESE,118,1.0,6.0,53,0.00,,CLR,0.00,0.00,VWS V14.01,2013-01-25 03:21:00,
2013-01-24 21:22:00,20.8,6.4,29.45,SE,124,1.0,5.0,53,0.00,,CLR,0.00,0.00,VWS V14.01,2013-01-25 03:22:00,
2013-01-24 21:25:00,20.8,6.4,29.45,SE,142,0.0,6.0,53,0.00,,CLR,0.00,0.00,VWS V14.01,2013-01-25 03:25:00,
2013-01-24 21:27:00,20.8,6.4,29.44,East,91,1.0,2.0,53,0.00,,CLR,0.00,0.00,VWS V14.01,2013-01-25 03:27:00,
2013-01-24 21:28:00,20.8,6.4,29.44,ESE,117,0.0,5.0,53,0.00,,CLR,0.00,0.00,VWS V14.01,2013-01-25 03:28:00,
2013-01-24 21:30:00,20.8,6.4,29.44,ESE,117,0.0,1.0,53,0.00,,CLR,0.00,0.00,VWS V14.01,2013-01-25 03:30:00,
2013-01-24 21:32:00,20.8,6.4,29.43,ESE,109,0.0,5.0,53,0.00,,CLR,0.00,0.00,VWS V14.01,2013-01-25 03:32:00,
2013-01-24 21:33:00,20.8,6.4,29.43,SE,126,1.0,5.0,53,0.00,,CLR,0.00,0.00,VWS V14.01,2013-01-25 03:33:00,
2013-01-24 21:35:00,20.8,6.4,29.43,ESE,116,0.0,6.0,53,0.00,,CLR,0.00,0.00,VWS V14.01,2013-01-25 03:35:00,
2013-01-24 21:38:00,20.8,6.4,29.43,ESE,110,1.0,5.0,53,0.00,,CLR,0.00,0.00,VWS V14.01,2013-01-25 03:38:00,
2013-01-24 21:40:00,20.8,6.4,29.43,ESE,117,2.0,5.0,53,0.00,,CLR,0.00,0.00,VWS V14.01,2013-01-25 03:40:00,
2013-01-24 21:42:00,20.8,6.4,29.43,East,96,0.0,6.0,53,0.00,,CLR,0.00,0.00,VWS V14.01,2013-01-25 03:42:00,
2013-01-24 21:43:00,20.8,6.4,29.43,East,96,0.0,1.0,53,0.00,,CLR,0.00,0.00,VWS V14.01,2013-01-25 03:43:00,
2013-01-24 21:45:00,20.8,6.4,29.44,ESE,119,0.0,2.0,53,0.00,,CLR,0.00,0.00,VWS V14.01,2013-01-25 03:45:00,
2013-01-24 21:48:00,20.8,6.4,29.43,SE,125,2.0,5.0,53,0.00,,CLR,0.00,0.00,VWS V14.01,2013-01-25 03:48:00,
2013-01-24 21:49:00,20.8,6.4,29.43,East,92,2.0,4.0,53,0.00,,CLR,0.00,0.00,VWS V14.01,2013-01-25 03:49:00,
2013-01-24 21:50:00,20.8,6.4,29.43,ESE,111,5.0,6.0,53,0.00,,CLR,0.00,0.00,VWS V14.01,2013-01-25 03:50:00,
2013-01-24 21:54:00,20.8,6.4,29.44,SE,126,0.0,2.0,53,0.00,,CLR,0.00,0.00,VWS V14.01,2013-01-25 03:54:00,
2013-01-24 21:56:00,20.8,6.4,29.44,ESE,114,0.0,6.0,53,0.00,,CLR,0.00,0.00,VWS V14.01,2013-01-25 03:56:00,
2013-01-24 21:59:00,20.8,6.4,29.44,ESE,119,1.0,2.0,53,0.00,,CLR,0.00,0.00,VWS V14.01,2013-01-25 03:59:00,
2013-01-24 22:02:00,20.8,6.4,29.44,ESE,105,0.0,1.0,53,0.00,,CLR,0.00,0.00,VWS V14.01,2013-01-25 04:02:00,
2013-01-24 22:03:00,20.8,6.4,29.44,SE,126,2.0,4.0,53,0.00,,CLR,0.00,0.00,VWS V14.01,2013-01-25 04:03:00,
2013-01-24 22:04:00,20.8,6.4,29.44,SE,125,2.0,5.0,53,0.00,,CLR,0.00,0.00,VWS V14.01,2013-01-25 04:04:00,
2013-01-24 22:06:00,20.8,6.4,29.44,SE,125,0.0,1.0,53,0.00,,CLR,0.00,0.00,VWS V14.01,2013-01-25 04:06:00,
2013-01-24 22:08:00,20.8,6.4,29.44,SE,138,1.0,7.0,53,0.00,,CLR,0.00,0.00,VWS V14.01,2013-01-25 04:08:00,
2013-01-24 22:10:00,20.8,6.4,29.43,SSE,147,1.0,5.0,53,0.00,,CLR,0.00,0.00,VWS V14.01,2013-01-25 04:10:00,
2013-01-24 22:14:00,20.8,6.0,29.42,SSW,195,0.0,4.0,52,0.00,,CLR,0.00,0.00,VWS V14.01,2013-01-25 04:14:00,
2013-01-24 22:16:00,20.8,6.0,29.43,ESE,119,1.0,4.0,52,0.00,,CLR,0.00,0.00,VWS V14.01,2013-01-25 04:16:00,
2013-01-24 22:17:00,20.8,6.0,29.43,ESE,119,0.0,1.0,52,0.00,,CLR,0.00,0.00,VWS V14.01,2013-01-25 04:17:00,
2013-01-24 22:19:00,20.8,6.4,29.44,ESE,109,0.0,4.0,53,0.00,,CLR,0.00,0.00,VWS V14.01,2013-01-25 04:19:00,
2013-01-24 22:20:00,20.8,6.4,29.44,ESE,109,0.0,1.0,53,0.00,,CLR,0.00,0.00,VWS V14.01,2013-01-25 04:20:00,
2013-01-24 22:23:00,20.8,6.4,29.45,SE,132,2.0,5.0,53,0.00,,CLR,0.00,0.00,VWS V14.01,2013-01-25 04:23:00,
2013-01-24 22:26:00,20.7,5.9,29.45,ESE,111,1.0,5.0,52,0.00,,CLR,0.00,0.00,VWS V14.01,2013-01-25 04:26:00,
2013-01-24 22:27:00,20.7,5.9,29.45,ESE,111,0.0,2.0,52,0.00,,CLR,0.00,0.00,VWS V14.01,2013-01-25 04:27:00,
2013-01-24 22:30:00,20.7,6.3,29.45,ESE,103,2.0,4.0,53,0.00,,CLR,0.00,0.00,VWS V14.01,2013-01-25 04:30:00,
2013-01-24 22:32:00,20.7,6.3,29.45,ESE,115,1.0,5.0,53,0.00,,CLR,0.00,0.00,VWS V14.01,2013-01-25 04:32:00,
2013-01-24 22:33:00,20.7,6.3,29.45,ESE,111,4.0,5.0,53,0.00,,CLR,0.00,0.00,VWS V14.01,2013-01-25 04:33:00,
2013-01-24 22:37:00,20.8,6.4,29.45,East,91,0.0,1.0,53,0.00,,CLR,0.00,0.00,VWS V14.01,2013-01-25 04:37:00,
2013-01-24 22:38:00,20.8,6.4,29.45,ESE,119,1.0,2.0,53,0.00,,CLR,0.00,0.00,VWS V14.01,2013-01-25 04:38:00,
2013-01-24 22:39:00,20.8,6.4,29.45,ESE,122,0.0,2.0,53,0.00,,CLR,0.00,0.00,VWS V14.01,2013-01-25 04:39:00,
2013-01-24 22:44:00,20.8,6.4,29.44,ESE,107,0.0,1.0,53,0.00,,CLR,0.00,0.00,VWS V14.01,2013-01-25 04:44:00,
2013-01-24 22:46:00,20.8,6.8,29.44,SSE,159,1.0,4.0,54,0.00,,CLR,0.00,0.00,VWS V14.01,2013-01-25 04:46:00,
2013-01-24 22:47:00,20.8,6.8,29.44,ESE,122,0.0,2.0,54,0.00,,CLR,0.00,0.00,VWS V14.01,2013-01-25 04:47:00,
2013-01-24 22:49:00,20.8,6.8,29.43,ESE,121,2.0,5.0,54,0.00,,CLR,0.00,0.00,VWS V14.01,2013-01-25 04:49:00,
2013-01-24 22:54:00,20.7,6.7,29.44,SE,130,1.0,1.0,54,0.00,,CLR,0.00,0.00,VWS V14.01,2013-01-25 04:54:00,
2013-01-24 22:55:00,20.7,6.7,29.44,SE,130,0.0,1.0,54,0.00,,CLR,0.00,0.00,VWS V14.01,2013-01-25 04:55:00,
2013-01-24 22:58:00,20.7,6.7,29.43,SE,135,0.0,1.0,54,0.00,,CLR,0.00,0.00,VWS V14.01,2013-01-25 04:58:00,
2013-01-24 23:03:00,20.7,6.7,29.44,SE,132,0.0,2.0,54,0.00,,CLR,0.00,0.00,VWS V14.01,2013-01-25 05:03:00,
2013-01-24 23:04:00,20.7,6.7,29.44,SE,132,0.0,0.0,54,0.00,,CLR,0.00,0.00,VWS V14.01,2013-01-25 05:04:00,
2013-01-24 23:07:00,20.7,6.7,29.44,SE,134,2.0,5.0,54,0.00,,CLR,0.00,0.00,VWS V14.01,2013-01-25 05:07:00,
2013-01-24 23:08:00,20.7,6.7,29.44,SE,135,0.0,2.0,54,0.00,,CLR,0.00,0.00,VWS V14.01,2013-01-25 05:08:00,
2013-01-24 23:09:00,20.7,6.7,29.44,ESE,119,0.0,2.0,54,0.00,,CLR,0.00,0.00,VWS V14.01,2013-01-25 05:09:00,
2013-01-24 23:14:00,20.7,6.7,29.44,SE,136,0.0,5.0,54,0.00,,CLR,0.00,0.00,VWS V14.01,2013-01-25 05:14:00,
2013-01-24 23:17:00,20.7,6.3,29.44,ESE,121,0.0,2.0,53,0.00,,CLR,0.00,0.00,VWS V14.01,2013-01-25 05:17:00,
2013-01-24 23:19:00,20.7,6.3,29.44,ESE,121,0.0,1.0,53,0.00,,CLR,0.00,0.00,VWS V14.01,2013-01-25 05:19:00,
2013-01-24 23:20:00,20.7,6.3,29.44,ESE,114,2.0,4.0,53,0.00,,CLR,0.00,0.00,VWS V14.01,2013-01-25 05:20:00,
2013-01-24 23:23:00,20.7,6.3,29.43,SE,136,0.0,4.0,53,0.00,,CLR,0.00,0.00,VWS V14.01,2013-01-25 05:23:00,
2013-01-24 23:24:00,20.7,6.3,29.43,ESE,116,1.0,4.0,53,0.00,,CLR,0.00,0.00,VWS V14.01,2013-01-25 05:24:00,
2013-01-24 23:29:00,20.7,5.9,29.43,East,80,3.0,6.0,52,0.00,,CLR,0.00,0.00,VWS V14.01,2013-01-25 05:29:00,
2013-01-24 23:34:00,20.8,5.5,29.42,ESE,112,0.0,7.0,51,0.00,,CLR,0.00,0.00,VWS V14.01,2013-01-25 05:34:00,
2013-01-24 23:37:00,20.8,5.5,29.42,ESE,121,1.0,5.0,51,0.00,,CLR,0.00,0.00,VWS V14.01,2013-01-25 05:37:00,
2013-01-24 23:38:00,20.8,5.5,29.42,SE,130,1.0,2.0,51,0.00,,CLR,0.00,0.00,VWS V14.01,2013-01-25 05:38:00,
2013-01-24 23:40:00,20.8,5.5,29.42,SE,144,1.0,1.0,51,0.00,,CLR,0.00,0.00,VWS V14.01,2013-01-25 05:40:00,
2013-01-24 23:43:00,20.8,5.5,29.43,SE,128,7.0,8.0,51,0.00,,CLR,0.00,0.00,VWS V14.01,2013-01-25 05:43:00,
2013-01-24 23:45:00,20.8,5.1,29.43,ESE,107,6.0,7.0,50,0.00,,CLR,0.00,0.00,VWS V14.01,2013-01-25 05:45:00,
2013-01-24 23:46:00,20.8,5.5,29.42,ESE,107,1.0,7.0,51,0.00,,CLR,0.00,0.00,VWS V14.01,2013-01-25 05:46:00,
2013-01-24 23:51:00,20.9,5.2,29.41,ESE,111,1.0,4.0,50,0.00,,CLR,0.00,0.00,VWS V14.01,2013-01-25 05:51:00,
2013-01-24 23:52:00,20.9,5.6,29.42,SE,141,1.0,6.0,51,0.00,,CLR,0.00,0.00,VWS V14.01,2013-01-25 05:52:00,
2013-01-24 23:57:00,20.9,5.2,29.41,SE,142,0.0,4.0,50,0.00,,CLR,0.00,0.00,VWS V14.01,2013-01-25 05:57:00,